M I D A S
Marine Information and Data Acquisition System
Tripno 2304 of the Zeeleeuw from 2012-02-21 07:21:21 to 2012-02-21 16:34:13
Back to CruiseResearch ActivitiesStationsMapUnderway DataData graphs

EquipmentUnitsComment
TimeDGPSUTC
LatitudeDGPSDM.mWGS84
LongitudeDGPSDM.mWGS84
TemperatureSBE03/SBE38deg celciusITS90
ConductivitySBE21S/mITS90
SalinitySBE21 Practical Salinity Units
ChlorophylAChelsea fluorimeterg/lCalibrated in Aceton
Missing or incorrect values are displayed as -999
Sea surface data collected by the RV Zeeleeuw from 2012-02-21 07:05:18 to 2012-02-21 16:35:23
                                                                                    Next 1000 lines
Time Latitude Longitude Temperature Conductivity Salinity ChlorophylA
2012-02-21 07:05:28 51°13.636 2°56.016 9.9205 0.044561 0.243074 -1.326982
2012-02-21 07:05:33 51°13.636 2°56.015 9.9207 0.044561 0.243074 -1.326982
2012-02-21 07:05:38 51°13.636 2°56.016 9.9178 0.044561 0.243069 -1.326982
2012-02-21 07:05:43 51°13.636 2°56.016 9.9079 0.044561 0.243069 -1.326982
2012-02-21 07:05:48 51°13.636 2°56.016 9.9189 0.044561 0.243069 -1.326982
2012-02-21 07:05:53 51°13.636 2°56.016 9.9286 0.044561 0.243069 -1.326982
2012-02-21 07:05:58 51°13.636 2°56.016 9.9292 0.044561 0.243069 -1.326982
2012-02-21 07:06:03 51°13.636 2°56.016 9.9202 0.044561 0.243069 -1.326982
2012-02-21 07:06:08 51°13.636 2°56.016 9.9137 0.044561 0.243069 -1.326982
2012-02-21 07:06:12 51°13.636 2°56.016 9.912 0.044561 0.243065 -1.326982
2012-02-21 07:06:17 51°13.637 2°56.016 9.9128 0.044561 0.243065 -1.326982
2012-02-21 07:06:22 51°13.637 2°56.016 9.9121 0.044561 0.243065 -1.326982
2012-02-21 07:06:27 51°13.637 2°56.016 9.9116 0.044561 0.243061 -1.326982
2012-02-21 07:06:32 51°13.637 2°56.017 9.9167 0.044561 0.243061 -1.326982
2012-02-21 07:06:38 51°13.637 2°56.017 9.9186 0.044561 0.243065 -1.326982
2012-02-21 07:06:43 51°13.637 2°56.017 9.9171 0.044561 0.243061 -1.326982
2012-02-21 07:06:48 51°13.637 2°56.017 9.9181 0.044561 0.243061 -1.326982
2012-02-21 07:06:53 51°13.637 2°56.017 9.9211 0.044561 0.243061 -1.326982
2012-02-21 07:06:57 51°13.637 2°56.017 9.9179 0.044561 0.243061 -1.326982
2012-02-21 07:07:03 51°13.637 2°56.017 9.926 0.044561 0.243061 -1.326982
2012-02-21 07:07:07 51°13.637 2°56.017 9.9221 0.044561 0.243061 -1.326982
2012-02-21 07:07:13 51°13.637 2°56.017 9.9113 0.044561 0.243056 -1.326982
2012-02-21 07:07:18 51°13.637 2°56.017 9.9145 0.044561 0.243056 -1.326982
2012-02-21 07:07:22 51°13.637 2°56.017 9.9169 0.044561 0.243056 -1.326982
2012-02-21 07:07:27 51°13.637 2°56.017 9.9259 0.044561 0.243056 -1.326982
2012-02-21 07:07:32 51°13.637 2°56.017 9.9317 0.044561 0.243056 -1.326982
2012-02-21 07:07:37 51°13.637 2°56.017 9.9294 0.044561 0.243056 -1.326982
2012-02-21 07:07:42 51°13.637 2°56.017 9.9236 0.044561 0.243056 -1.326982
2012-02-21 07:07:47 51°13.637 2°56.017 9.925 0.044561 0.243056 -1.326982
2012-02-21 07:07:53 51°13.637 2°56.017 9.9199 0.044561 0.243056 -1.326982
2012-02-21 07:07:58 51°13.637 2°56.018 9.9188 0.044561 0.243056 -1.326982
2012-02-21 07:08:03 51°13.637 2°56.018 9.9254 0.044561 0.243056 -1.326982
2012-02-21 07:08:07 51°13.637 2°56.018 9.9262 0.044561 0.243056 -1.326982
2012-02-21 07:08:13 51°13.637 2°56.018 9.9264 0.044561 0.243052 -1.326982
2012-02-21 07:08:18 51°13.636 2°56.018 9.9302 0.044561 0.243056 -1.326982
2012-02-21 07:08:23 51°13.636 2°56.018 9.931 0.044561 0.243056 -1.326982
2012-02-21 07:08:27 51°13.636 2°56.018 9.9305 0.044561 0.243056 -1.326982
2012-02-21 07:08:33 51°13.636 2°56.018 9.9309 0.044561 0.243056 -1.326982
2012-02-21 07:08:38 51°13.636 2°56.018 9.9311 0.044561 0.243052 -1.326982
2012-02-21 07:08:43 51°13.636 2°56.018 9.9317 0.044561 0.243052 -1.326982
2012-02-21 07:08:47 51°13.636 2°56.018 9.9332 0.044561 0.243052 -1.326982
2012-02-21 07:08:53 51°13.636 2°56.018 9.9331 0.044561 0.243052 -1.326982
2012-02-21 07:08:57 51°13.636 2°56.018 9.9302 0.044561 0.243052 -1.326982
2012-02-21 07:09:03 51°13.636 2°56.018 9.9302 0.044561 0.243052 -1.326982
2012-02-21 07:09:07 51°13.636 2°56.018 9.9289 0.044561 0.243052 -1.326982
2012-02-21 07:09:12 51°13.636 2°56.018 9.9284 0.044561 0.243056 -1.326982
2012-02-21 07:09:17 51°13.636 2°56.018 9.9261 0.044561 0.243052 -1.326982
2012-02-21 07:09:23 51°13.636 2°56.018 9.9281 0.044561 0.243056 -1.326982
2012-02-21 07:09:28 51°13.636 2°56.018 9.9296 0.044561 0.243056 -1.326982
2012-02-21 07:09:33 51°13.636 2°56.018 9.9301 0.044561 0.243056 -1.326982
2012-02-21 07:09:38 51°13.636 2°56.018 9.9331 0.044561 0.243052 -1.326982
2012-02-21 07:09:43 51°13.636 2°56.018 9.9334 0.044561 0.243056 -1.326982
2012-02-21 07:09:48 51°13.636 2°56.018 9.9341 0.044561 0.243056 -1.326982
2012-02-21 07:09:52 51°13.636 2°56.018 9.9372 0.044561 0.243056 -1.326982
2012-02-21 07:09:58 51°13.636 2°56.018 9.9341 0.044561 0.243056 -1.326982
2012-02-21 07:10:03 51°13.636 2°56.018 9.9341 0.044561 0.243056 -1.326982
2012-02-21 07:10:08 51°13.636 2°56.018 9.9336 0.044561 0.243056 -1.326982
2012-02-21 07:10:12 51°13.636 2°56.018 9.9349 0.044561 0.243056 -1.326982
2012-02-21 07:10:18 51°13.636 2°56.018 9.9336 0.044561 0.243061 -1.326982
2012-02-21 07:10:23 51°13.636 2°56.019 9.9338 0.044561 0.243056 -1.326982
2012-02-21 07:10:27 51°13.635 2°56.019 9.9327 0.044561 0.243061 -1.326982
2012-02-21 07:10:33 51°13.635 2°56.019 9.933 0.044561 0.243061 -1.326982
2012-02-21 07:10:37 51°13.635 2°56.019 9.9337 0.044561 0.243061 -1.326982
2012-02-21 07:10:43 51°13.635 2°56.019 9.9342 0.044561 0.243061 -1.326982
2012-02-21 07:10:48 51°13.635 2°56.019 9.9342 0.044561 0.243056 -1.326982
2012-02-21 07:10:53 51°13.636 2°56.019 9.9337 0.044561 0.243061 -1.326982
2012-02-21 07:10:57 51°13.636 2°56.019 9.9325 0.044561 0.243061 -1.326982
2012-02-21 07:11:02 51°13.635 2°56.019 9.9328 0.044561 0.243061 -1.326982
2012-02-21 07:11:07 51°13.635 2°56.019 9.9327 0.044561 0.243061 -1.326982
2012-02-21 07:11:12 51°13.634 2°56.019 9.9323 0.044561 0.243061 -1.326982
2012-02-21 07:11:18 51°13.634 2°56.019 9.9323 0.044561 0.243061 -1.326982
2012-02-21 07:11:22 51°13.634 2°56.019 9.9345 0.044561 0.243061 -1.326982
2012-02-21 07:11:28 51°13.634 2°56.018 9.9349 0.044561 0.243065 -1.326982
2012-02-21 07:11:33 51°13.634 2°56.018 9.9373 0.044561 0.243065 -1.326982
2012-02-21 07:11:38 51°13.634 2°56.018 9.9376 0.044561 0.243065 -1.326982
2012-02-21 07:11:42 51°13.634 2°56.018 9.9383 0.044561 0.243065 -1.326982
2012-02-21 07:11:48 51°13.634 2°56.018 9.9393 0.044561 0.243065 -1.326982
2012-02-21 07:11:53 51°13.634 2°56.018 9.9402 0.044561 0.243065 -1.326982
2012-02-21 07:11:58 51°13.634 2°56.019 9.9385 0.044561 0.243065 -1.326982
2012-02-21 07:12:03 51°13.635 2°56.019 9.9386 0.044561 0.243065 -1.326982
2012-02-21 07:12:08 51°13.635 2°56.019 9.9385 0.044561 0.243065 -1.326982
2012-02-21 07:12:13 51°13.635 2°56.019 9.9381 0.044561 0.243065 -1.326982
2012-02-21 07:12:17 51°13.635 2°56.019 9.9377 0.044561 0.243069 -1.326982
2012-02-21 07:12:21 51°13.635 2°56.019 9.9372 0.044561 0.243069 -1.326982
2012-02-21 07:12:27 51°13.634 2°56.018 9.9381 0.044561 0.243069 -1.326982
2012-02-21 07:12:33 51°13.635 2°56.018 9.9384 0.044561 0.243069 -1.326982
2012-02-21 07:12:38 51°13.635 2°56.019 9.9398 0.044561 0.243069 -1.326982
2012-02-21 07:12:43 51°13.635 2°56.019 9.9424 0.044561 0.243069 -1.326982
2012-02-21 07:12:47 51°13.635 2°56.019 9.9429 0.044561 0.243074 -1.326982
2012-02-21 07:12:52 51°13.635 2°56.018 9.9449 0.044561 0.243074 -1.326982
2012-02-21 07:12:57 51°13.635 2°56.018 9.9446 0.044561 0.243074 -1.326982
2012-02-21 07:13:02 51°13.635 2°56.018 9.9459 0.044561 0.243074 -1.326982
2012-02-21 07:13:07 51°13.636 2°56.016 9.9464 0.044561 0.243074 -1.326982
2012-02-21 07:13:13 51°13.638 2°56.016 9.9492 0.044561 0.243074 -1.326982
2012-02-21 07:13:18 51°13.638 2°56.017 9.9493 0.044561 0.243078 -1.326982
2012-02-21 07:13:23 51°13.638 2°56.017 9.9496 0.044561 0.243078 -1.326982
2012-02-21 07:13:28 51°13.638 2°56.017 9.9501 0.044561 0.243078 -1.326982
2012-02-21 07:13:33 51°13.638 2°56.017 9.9512 0.044561 0.243078 -1.326982
2012-02-21 07:13:38 51°13.639 2°56.017 9.9506 0.044561 0.243078 -1.326982
2012-02-21 07:13:42 51°13.639 2°56.017 9.9512 0.044561 0.243082 -1.326982
2012-02-21 07:13:48 51°13.638 2°56.018 9.9523 0.044561 0.243082 -1.326982
2012-02-21 07:13:53 51°13.638 2°56.018 9.9521 0.044561 0.243082 -1.326982
2012-02-21 07:13:58 51°13.638 2°56.018 9.9524 0.044561 0.243082 -1.326982
2012-02-21 07:14:02 51°13.638 2°56.018 9.9533 0.044561 0.243082 -1.326982
2012-02-21 07:14:07 51°13.637 2°56.018 9.9526 0.044561 0.243082 -1.326982
2012-02-21 07:14:13 51°13.637 2°56.018 9.9547 0.044561 0.243082 -1.326982
2012-02-21 07:14:18 51°13.637 2°56.018 9.9544 0.044561 0.243082 -1.326982
2012-02-21 07:14:23 51°13.637 2°56.018 9.9543 0.044561 0.243086 -1.326982
2012-02-21 07:14:28 51°13.637 2°56.018 9.9565 0.044561 0.243086 -1.326982
2012-02-21 07:14:33 51°13.637 2°56.018 9.9554 0.044561 0.243086 -1.326982
2012-02-21 07:14:37 51°13.637 2°56.019 9.9573 0.044561 0.243086 -1.326982
2012-02-21 07:14:43 51°13.637 2°56.019 9.9578 0.044561 0.243091 -1.326982
2012-02-21 07:14:48 51°13.637 2°56.019 9.9594 0.044561 0.243091 -1.326982
2012-02-21 07:14:53 51°13.637 2°56.018 9.9601 0.044561 0.243091 -1.326982
2012-02-21 07:14:57 51°13.636 2°56.018 9.9601 0.044561 0.243091 -1.326982
2012-02-21 07:15:03 51°13.636 2°56.018 9.9611 0.044561 0.243091 -1.326982
2012-02-21 07:15:08 51°13.636 2°56.018 9.9624 0.044561 0.243095 -1.326982
2012-02-21 07:15:12 51°13.636 2°56.018 9.9639 0.044561 0.243095 -1.326982
2012-02-21 07:15:17 51°13.636 2°56.018 9.9621 0.044561 0.243095 -1.326982
2012-02-21 07:15:22 51°13.636 2°56.018 9.9623 0.044561 0.243099 -1.326982
2012-02-21 07:15:27 51°13.636 2°56.018 9.9638 0.044561 0.243099 -1.326982
2012-02-21 07:15:33 51°13.636 2°56.018 9.9624 0.044561 0.243099 -1.326982
2012-02-21 07:15:38 51°13.636 2°56.018 9.9631 0.044561 0.243095 -1.326982
2012-02-21 07:15:42 51°13.636 2°56.018 9.9632 0.044561 0.243099 -1.326982
2012-02-21 07:15:48 51°13.636 2°56.018 9.9631 0.044561 0.243099 -1.326982
2012-02-21 07:15:53 51°13.637 2°56.018 9.9633 0.044561 0.243103 -1.326982
2012-02-21 07:15:58 51°13.637 2°56.018 9.9627 0.044561 0.243099 -1.326982
2012-02-21 07:16:02 51°13.637 2°56.018 9.9605 0.044561 0.243099 -1.326982
2012-02-21 07:16:08 51°13.637 2°56.018 9.9608 0.044561 0.243103 -1.326982
2012-02-21 07:16:13 51°13.636 2°56.018 9.9594 0.044561 0.243103 -1.326982
2012-02-21 07:16:18 51°13.636 2°56.018 9.9575 0.044561 0.243103 -1.326982
2012-02-21 07:16:22 51°13.637 2°56.018 9.9548 0.044561 0.243108 -1.326982
2012-02-21 07:16:27 51°13.637 2°56.018 9.9542 0.044561 0.243108 -1.326982
2012-02-21 07:16:32 51°13.637 2°56.018 9.9553 0.044561 0.243108 -1.326982
2012-02-21 07:16:37 51°13.637 2°56.018 9.9555 0.044561 0.243108 -1.326982
2012-02-21 07:16:42 51°13.637 2°56.018 9.9572 0.044561 0.243108 -1.326982
2012-02-21 07:16:48 51°13.637 2°56.018 9.9572 0.044561 0.243112 -1.326982
2012-02-21 07:16:53 51°13.636 2°56.018 9.9581 0.044561 0.243112 -1.326982
2012-02-21 07:16:58 51°13.636 2°56.018 9.9574 0.044561 0.243112 -1.326982
2012-02-21 07:17:03 51°13.637 2°56.018 9.9558 0.044561 0.243112 -1.326982
2012-02-21 07:17:07 51°13.636 2°56.018 9.9547 0.044561 0.243112 -1.326982
2012-02-21 07:17:13 51°13.636 2°56.018 9.9586 0.044561 0.243112 -1.326982
2012-02-21 07:17:18 51°13.636 2°56.018 9.9574 0.044561 0.243116 -1.326982
2012-02-21 07:17:23 51°13.636 2°56.018 9.9601 0.044561 0.243116 -1.326982
2012-02-21 07:17:28 51°13.636 2°56.018 9.9609 0.044561 0.243116 -1.326982
2012-02-21 07:17:33 51°13.636 2°56.018 9.9626 0.044561 0.243116 -1.326982
2012-02-21 07:17:38 51°13.636 2°56.018 9.9626 0.044561 0.24312 -1.326982
2012-02-21 07:17:43 51°13.636 2°56.018 9.9639 0.044561 0.24312 -1.326982
2012-02-21 07:17:47 51°13.636 2°56.018 9.9651 0.044561 0.24312 -1.326982
2012-02-21 07:17:53 51°13.635 2°56.018 9.9646 0.044561 0.243125 -1.326982
2012-02-21 07:17:58 51°13.636 2°56.018 9.965 0.044561 0.243125 -1.326982
2012-02-21 07:18:03 51°13.636 2°56.018 9.9663 0.044561 0.243125 -1.326982
2012-02-21 07:18:08 51°13.636 2°56.018 9.9687 0.044561 0.243125 -1.326982
2012-02-21 07:18:13 51°13.636 2°56.019 9.9666 0.044561 0.243125 -1.326982
2012-02-21 07:18:18 51°13.635 2°56.018 9.9665 0.044561 0.243125 -1.326982
2012-02-21 07:18:23 51°13.635 2°56.017 9.9665 0.044561 0.243129 -1.326982
2012-02-21 07:18:27 51°13.634 2°56.017 9.9669 0.044561 0.243129 -1.326982
2012-02-21 07:18:33 51°13.635 2°56.017 9.9677 0.044561 0.243129 -1.326982
2012-02-21 07:18:38 51°13.635 2°56.018 9.9665 0.044561 0.243129 -1.326982
2012-02-21 07:18:42 51°13.635 2°56.018 9.9704 0.044561 0.243129 -1.326982
2012-02-21 07:18:47 51°13.635 2°56.018 9.9706 0.044561 0.243133 -1.326982
2012-02-21 07:18:52 51°13.635 2°56.018 9.9731 0.044561 0.243133 -1.326982
2012-02-21 07:18:58 51°13.635 2°56.018 9.9729 0.044561 0.243137 -1.326982
2012-02-21 07:19:03 51°13.635 2°56.018 9.9762 0.044561 0.243137 -1.326982
2012-02-21 07:19:07 51°13.634 2°56.018 9.9792 0.044561 0.243137 -1.326982
2012-02-21 07:19:12 51°13.634 2°56.018 9.9794 0.044561 0.243137 -1.326982
2012-02-21 07:19:18 51°13.634 2°56.018 9.9816 0.044561 0.243137 -1.326982
2012-02-21 07:19:23 51°13.634 2°56.018 9.9825 0.044561 0.243142 -1.326982
2012-02-21 07:19:27 51°13.633 2°56.018 9.9814 0.044561 0.243142 -1.326982
2012-02-21 07:19:33 51°13.633 2°56.018 9.9857 0.044561 0.243142 -1.326982
2012-02-21 07:19:37 51°13.633 2°56.017 9.9829 0.044561 0.243146 -1.326982
2012-02-21 07:19:42 51°13.633 2°56.017 9.9848 0.044561 0.243146 -1.326982
2012-02-21 07:19:47 51°13.633 2°56.018 9.9868 0.044561 0.243146 -1.326982
2012-02-21 07:19:52 51°13.634 2°56.018 9.9801 0.044561 0.243146 -1.326982
2012-02-21 07:19:57 51°13.635 2°56.018 9.9868 0.044561 0.243146 -1.326982
2012-02-21 07:20:02 51°13.635 2°56.018 9.9827 0.044561 0.243146 -1.326982
2012-02-21 07:20:07 51°13.636 2°56.018 9.9884 0.044561 0.24315 -1.326982
2012-02-21 07:20:13 51°13.636 2°56.017 9.9866 0.044561 0.243154 -1.326982
2012-02-21 07:20:18 51°13.636 2°56.017 9.9884 0.044561 0.24315 -1.326982
2012-02-21 07:20:22 51°13.636 2°56.017 9.988 0.044561 0.24315 -1.326982
2012-02-21 07:20:27 51°13.636 2°56.017 9.9896 0.044561 0.243154 -1.326982
2012-02-21 07:20:33 51°13.636 2°56.017 9.988 0.044561 0.243154 -1.326982
2012-02-21 07:20:38 51°13.636 2°56.017 9.9888 0.044561 0.243159 -1.326982
2012-02-21 07:20:42 51°13.636 2°56.017 9.9897 0.044561 0.243159 -1.326982
2012-02-21 07:20:47 51°13.636 2°56.018 9.993 0.044561 0.243159 -1.326982
2012-02-21 07:20:52 51°13.636 2°56.017 9.9965 0.044561 0.243163 -1.326982
2012-02-21 07:20:58 51°13.636 2°56.017 9.9961 0.044561 0.243163 -1.326982
2012-02-21 07:21:03 51°13.636 2°56.017 9.9968 0.044561 0.243163 -1.326982
2012-02-21 07:21:07 51°13.636 2°56.017 9.9978 0.044561 0.243163 -1.326982
2012-02-21 07:21:12 51°13.636 2°56.017 9.9981 0.044561 0.243167 -1.326982
2012-02-21 07:21:18 51°13.636 2°56.018 10.0006 0.044561 0.243171 -1.326982
2012-02-21 07:21:23 51°13.636 2°56.018 10.0018 0.044561 0.243176 -1.326982
2012-02-21 07:21:27 51°13.636 2°56.018 10.0023 0.044561 0.243176 -1.326982
2012-02-21 07:21:32 51°13.636 2°56.018 10.0024 0.044561 0.243176 -1.326982
2012-02-21 07:21:37 51°13.636 2°56.017 10.002 0.044561 0.243176 -1.326982
2012-02-21 07:21:43 51°13.636 2°56.018 10.0015 0.044561 0.243176 -1.326982
2012-02-21 07:21:47 51°13.636 2°56.018 10.0019 0.044561 0.243176 -1.326982
2012-02-21 07:21:52 51°13.636 2°56.018 10.0012 0.044561 0.243176 -1.326982
2012-02-21 07:21:57 51°13.636 2°56.018 10.0015 0.044561 0.243176 -1.326982
2012-02-21 07:22:03 51°13.636 2°56.018 10.0003 0.044561 0.243176 -1.326982
2012-02-21 07:22:07 51°13.636 2°56.018 9.9987 0.044561 0.243176 -1.326982
2012-02-21 07:22:12 51°13.636 2°56.018 9.9981 0.044561 0.24318 -1.326982
2012-02-21 07:22:17 51°13.636 2°56.018 9.998 0.044561 0.24318 -1.326982
2012-02-21 07:22:22 51°13.636 2°56.018 10.0018 0.044561 0.243184 -1.326982
2012-02-21 07:22:27 51°13.636 2°56.018 10.0085 0.044561 0.243184 -1.326982
2012-02-21 07:22:32 51°13.636 2°56.018 10.0056 0.044561 0.243184 -1.326982
2012-02-21 07:22:37 51°13.636 2°56.018 10.0053 0.044561 0.243188 -1.326982
2012-02-21 07:22:42 51°13.636 2°56.018 10.0115 0.044561 0.243193 -1.326982
2012-02-21 07:22:47 51°13.636 2°56.018 10.0143 0.044561 0.243193 -1.326982
2012-02-21 07:22:52 51°13.636 2°56.018 10.0208 0.044561 0.243193 -1.326982
2012-02-21 07:22:57 51°13.636 2°56.018 10.0233 0.044561 0.243193 -1.326982
2012-02-21 07:23:02 51°13.636 2°56.018 10.0218 0.044561 0.243193 -1.326982
2012-02-21 07:23:07 51°13.636 2°56.018 10.0223 0.044561 0.243197 -1.326982
2012-02-21 07:23:12 51°13.636 2°56.018 10.0207 0.044561 0.243197 -1.326982
2012-02-21 07:23:17 51°13.636 2°56.018 10.0194 0.044664 0.243774 -1.326982
2012-02-21 07:23:22 51°13.636 2°56.018 10.0179 0.044664 0.243774 -1.326982
2012-02-21 07:23:27 51°13.635 2°56.018 10.018 0.044664 0.243774 -1.326982
2012-02-21 07:23:32 51°13.635 2°56.018 10.0143 0.044664 0.243774 -1.326982
2012-02-21 07:23:37 51°13.635 2°56.018 10.0154 0.044664 0.243774 -1.326982
2012-02-21 07:23:42 51°13.635 2°56.018 10.0184 0.044664 0.243779 -1.326982
2012-02-21 07:23:47 51°13.635 2°56.018 10.0216 0.044664 0.243783 -1.326982
2012-02-21 07:23:52 51°13.635 2°56.018 10.0266 0.044664 0.243783 -1.326982
2012-02-21 07:23:57 51°13.635 2°56.018 10.033 0.044664 0.243783 -1.326982
2012-02-21 07:24:02 51°13.635 2°56.018 10.0366 0.044664 0.243783 -1.326982
2012-02-21 07:24:07 51°13.635 2°56.018 10.0424 0.044664 0.243787 -1.326982
2012-02-21 07:24:11 51°13.634 2°56.018 10.0387 0.044664 0.243787 -1.326982
2012-02-21 07:24:17 51°13.634 2°56.017 10.0265 0.044664 0.243796 -1.326982
2012-02-21 07:24:22 51°13.634 2°56.017 9.9023 0.044766 0.244373 -1.326982
2012-02-21 07:24:27 51°13.634 2°56.016 9.8824 0.046309 0.252992 -1.326982
2012-02-21 07:24:32 51°13.635 2°56.013 9.7135 0.046309 0.252992 -1.326982
2012-02-21 07:24:37 51°13.636 2°56.01 9.9499 0.062862 0.346256 -1.326982
2012-02-21 07:24:42 51°13.637 2°56.005 9.9085 0.063479 0.349765 -1.326982
2012-02-21 07:24:47 51°13.638 2°55.999 10.0014 0.063479 0.349765 -1.326982
2012-02-21 07:24:52 51°13.64 2°55.992 9.8919 0.063479 0.349759 -1.326982
2012-02-21 07:24:57 51°13.641 2°55.984 10.0023 0.063582 0.350337 -1.326982
2012-02-21 07:25:02 51°13.643 2°55.976 9.9889 0.063582 0.350337 -1.326982
2012-02-21 07:25:07 51°13.645 2°55.966 10.0359 0.063582 0.350331 -1.326982
2012-02-21 07:25:12 51°13.647 2°55.957 10.0181 0.063582 0.350331 -1.326982
2012-02-21 07:25:17 51°13.649 2°55.947 10.0401 0.063582 0.350331 -1.326982
2012-02-21 07:25:22 51°13.652 2°55.937 10.0138 0.063582 0.350331 -1.326982
2012-02-21 07:25:27 51°13.654 2°55.927 10.0349 0.063582 0.350337 -1.326982
2012-02-21 07:25:32 51°13.657 2°55.916 10.0454 0.063582 0.350337 -1.326982
2012-02-21 07:25:37 51°13.659 2°55.906 10.0779 0.063582 0.350337 -1.326982
2012-02-21 07:25:42 51°13.662 2°55.895 10.0775 0.063582 0.350343 -1.326982
2012-02-21 07:25:47 51°13.665 2°55.884 10.0724 0.063582 0.350343 -1.326982
2012-02-21 07:25:52 51°13.668 2°55.874 10.0647 0.063582 0.350343 -1.326982
2012-02-21 07:25:57 51°13.671 2°55.863 10.0595 0.063582 0.350343 -1.326982
2012-02-21 07:26:02 51°13.674 2°55.852 10.0717 0.063582 0.350343 -1.326982
2012-02-21 07:26:07 51°13.678 2°55.842 10.0654 0.063582 0.350343 -1.326982
2012-02-21 07:26:12 51°13.681 2°55.831 10.063 0.063582 0.35035 -1.326982
2012-02-21 07:26:17 51°13.685 2°55.821 10.0639 0.063582 0.35035 -1.326982
2012-02-21 07:26:22 51°13.689 2°55.811 10.067 0.063582 0.35035 -1.326982
2012-02-21 07:26:27 51°13.693 2°55.802 10.0355 0.063582 0.350356 -1.326982
2012-02-21 07:26:32 51°13.697 2°55.792 10.0575 0.063582 0.350356 -1.326982
2012-02-21 07:26:37 51°13.701 2°55.783 10.0479 0.063582 0.350362 -1.326982
2012-02-21 07:26:42 51°13.705 2°55.774 10.0783 0.063582 0.350362 -1.326982
2012-02-21 07:26:47 51°13.71 2°55.766 10.0662 0.063582 0.350362 -1.326982
2012-02-21 07:26:52 51°13.714 2°55.757 10.0556 0.063582 0.350368 -1.326982
2012-02-21 07:26:57 51°13.719 2°55.749 10.0455 0.063582 0.350368 -1.326982
2012-02-21 07:27:02 51°13.724 2°55.741 10.0605 0.063582 0.350368 -1.326982
2012-02-21 07:27:07 51°13.729 2°55.733 10.0474 0.063582 0.350375 -1.326982
2012-02-21 07:27:12 51°13.734 2°55.726 10.0721 0.063582 0.350375 -1.326982
2012-02-21 07:27:17 51°13.739 2°55.719 10.0544 0.063582 0.350381 -1.326982
2012-02-21 07:27:22 51°13.745 2°55.712 10.0581 0.063582 0.350381 -1.326982
2012-02-21 07:27:27 51°13.751 2°55.705 10.0369 0.063582 0.350381 -1.326982
2012-02-21 07:27:32 51°13.757 2°55.699 10.0881 0.063582 0.350387 -1.326982
2012-02-21 07:27:37 51°13.764 2°55.693 10.054 0.063582 0.350387 -1.326982
2012-02-21 07:27:42 51°13.77 2°55.686 10.0832 0.063582 0.350393 -1.326982
2012-02-21 07:27:47 51°13.777 2°55.68 10.0843 0.063582 0.350393 -1.326982
2012-02-21 07:27:52 51°13.783 2°55.675 10.0745 0.063582 0.3504 -1.326982
2012-02-21 07:27:57 51°13.79 2°55.669 10.0585 0.063582 0.3504 -1.326982
2012-02-21 07:28:02 51°13.797 2°55.663 10.0523 0.063582 0.3504 -1.326982
2012-02-21 07:28:07 51°13.804 2°55.657 10.048 0.063582 0.3504 -1.326982
2012-02-21 07:28:12 51°13.812 2°55.652 10.0443 0.063582 0.350406 -1.326982
2012-02-21 07:28:17 51°13.819 2°55.646 10.0299 0.063582 0.350406 -1.326982
2012-02-21 07:28:22 51°13.826 2°55.64 10.0105 0.063582 0.350406 -1.326982
2012-02-21 07:28:27 51°13.833 2°55.635 10.0104 0.063684 0.35099 -1.326982
2012-02-21 07:28:32 51°13.839 2°55.631 10.0353 0.063684 0.35099 -1.326982
2012-02-21 07:28:37 51°13.846 2°55.626 9.9575 0.063684 0.350997 -1.326982
2012-02-21 07:28:42 51°13.852 2°55.623 10.0023 0.063684 0.350997 -1.326982
2012-02-21 07:28:47 51°13.859 2°55.619 10.0457 0.063684 0.351003 -1.326982
2012-02-21 07:28:52 51°13.866 2°55.616 10.0244 0.063684 0.351003 -1.326982
2012-02-21 07:28:57 51°13.872 2°55.613 10.0311 0.063684 0.351009 -1.326982
2012-02-21 07:29:02 51°13.878 2°55.611 10.0681 0.063684 0.351009 -1.326982
2012-02-21 07:29:07 51°13.885 2°55.609 10.0744 0.063684 0.351009 -1.326982
2012-02-21 07:29:12 51°13.891 2°55.608 10.0982 0.063684 0.351015 -1.326982
2012-02-21 07:29:17 51°13.898 2°55.607 10.0881 0.063684 0.351015 -1.326982
2012-02-21 07:29:22 51°13.904 2°55.607 10.0971 0.063684 0.351022 -1.326982
2012-02-21 07:29:27 51°13.91 2°55.608 10.0491 0.063684 0.351034 -1.326982
2012-02-21 07:29:32 51°13.915 2°55.609 10.068 0.063684 0.351034 -1.326982
2012-02-21 07:29:37 51°13.921 2°55.61 10.0588 0.063684 0.351034 -1.326982
2012-02-21 07:29:42 51°13.927 2°55.612 10.0674 0.063684 0.35104 -1.326982
2012-02-21 07:29:47 51°13.932 2°55.613 10.0631 0.063684 0.35104 -1.326982
2012-02-21 07:29:52 51°13.937 2°55.615 10.0529 0.063684 0.35104 -1.326982
2012-02-21 07:29:57 51°13.942 2°55.618 10.0435 0.063684 0.351047 -1.326982
2012-02-21 07:30:02 51°13.946 2°55.62 10.042 0.063684 0.351047 -1.326982
2012-02-21 07:30:07 51°13.951 2°55.623 10.0836 0.063684 0.351047 -1.326982
2012-02-21 07:30:12 51°13.955 2°55.626 10.0949 0.063684 0.351053 -1.326982
2012-02-21 07:30:17 51°13.959 2°55.63 10.092 0.063684 0.351053 -1.326982
2012-02-21 07:30:22 51°13.963 2°55.633 10.0786 0.063684 0.351059 -1.326982
2012-02-21 07:30:27 51°13.966 2°55.636 10.084 0.063684 0.351059 -1.326982
2012-02-21 07:30:32 51°13.97 2°55.64 10.1031 0.063684 0.351059 -1.326982
2012-02-21 07:30:37 51°13.973 2°55.643 10.0767 0.063684 0.351066 -1.326982
2012-02-21 07:30:42 51°13.975 2°55.645 10.084 0.063684 0.351066 -1.326982
2012-02-21 07:30:47 51°13.977 2°55.648 10.0952 0.063684 0.351072 -1.326982
2012-02-21 07:30:52 51°13.979 2°55.65 10.1071 0.063684 0.351072 -1.326982
2012-02-21 07:30:57 51°13.98 2°55.651 10.1198 0.063684 0.351072 -1.326982
2012-02-21 07:31:02 51°13.981 2°55.651 10.1208 0.063684 0.351072 -1.326982
2012-02-21 07:31:07 51°13.982 2°55.651 10.1082 0.063684 0.351072 -1.326982
2012-02-21 07:31:12 51°13.982 2°55.649 10.099 0.063684 0.351072 -1.326982
2012-02-21 07:31:17 51°13.982 2°55.648 10.0775 0.063684 0.351078 -1.326982
2012-02-21 07:31:22 51°13.983 2°55.646 10.0829 0.063684 0.351078 -1.326982
2012-02-21 07:31:27 51°13.983 2°55.642 9.7469 0.063684 0.351122 -1.326982
2012-02-21 07:31:32 51°13.983 2°55.637 9.7067 0.063684 0.351122 -1.326982
2012-02-21 07:31:37 51°13.984 2°55.632 9.7143 0.063684 0.351191 -1.326982
2012-02-21 07:31:42 51°13.986 2°55.626 9.726 0.063684 0.351235 -1.326982
2012-02-21 07:31:47 51°13.988 2°55.62 9.8759 0.063684 0.351241 -1.326982
2012-02-21 07:31:52 51°13.991 2°55.613 9.9796 0.063684 0.351216 -1.326982
2012-02-21 07:31:57 51°13.995 2°55.605 9.9651 0.063684 0.351179 -1.326982
2012-02-21 07:32:02 51°13.999 2°55.596 9.9438 0.063684 0.351179 -1.326982
2012-02-21 07:32:07 51°14.004 2°55.586 9.9283 0.063684 0.351116 -1.326982
2012-02-21 07:32:12 51°14.01 2°55.576 9.858 0.063684 0.351047 -1.326982
2012-02-21 07:32:17 51°14.016 2°55.566 9.9069 0.063684 0.351009 -1.326982
2012-02-21 07:32:22 51°14.023 2°55.554 9.8398 0.063684 0.351009 -1.326982
2012-02-21 07:32:27 51°14.031 2°55.543 9.8413 0.063787 0.351619 -1.326982
2012-02-21 07:32:32 51°14.039 2°55.531 9.6844 0.063787 0.351619 -1.326982
2012-02-21 07:32:37 51°14.048 2°55.52 9.7795 0.063787 0.35165 -1.326982
2012-02-21 07:32:42 51°14.057 2°55.508 9.6879 0.063787 0.3517 -1.326982
2012-02-21 07:32:47 51°14.067 2°55.496 9.7613 0.063787 0.351732 -1.326982
2012-02-21 07:32:52 51°14.077 2°55.485 9.7422 0.063787 0.351757 -1.326982
2012-02-21 07:32:57 51°14.088 2°55.473 9.7835 0.063787 0.35177 -1.326982
2012-02-21 07:33:02 51°14.099 2°55.461 9.6813 0.063787 0.35177 -1.326982
2012-02-21 07:33:07 51°14.11 2°55.449 9.7982 0.063787 0.351763 -1.326982
2012-02-21 07:33:12 51°14.121 2°55.437 9.731 0.063787 0.351757 -1.326982
2012-02-21 07:33:17 51°14.133 2°55.426 9.7512 0.063787 0.351744 -1.326982
2012-02-21 07:33:22 51°14.145 2°55.413 9.6393 0.063787 0.351732 -1.326982
2012-02-21 07:33:27 51°14.157 2°55.401 9.7318 0.063787 0.351719 -1.326982
2012-02-21 07:33:32 51°14.169 2°55.389 9.7279 0.063787 0.351719 -1.326982
2012-02-21 07:33:37 51°14.181 2°55.377 9.7041 0.063787 0.351726 -1.326982
2012-02-21 07:33:42 51°14.193 2°55.366 9.6182 0.063787 0.351732 -1.326982
2012-02-21 07:33:47 51°14.206 2°55.355 9.8312 0.063787 0.351744 -1.326982
2012-02-21 07:33:52 51°14.218 2°55.343 9.799 0.063787 0.351763 -1.326982
2012-02-21 07:33:57 51°14.23 2°55.331 9.7495 0.063787 0.351776 -1.326982
2012-02-21 07:34:02 51°14.243 2°55.32 9.7906 0.063787 0.351776 -1.326982
2012-02-21 07:34:07 51°14.256 2°55.308 9.8201 0.063787 0.351788 -1.326982
2012-02-21 07:34:12 51°14.268 2°55.296 9.843 0.063787 0.351795 -1.326982
2012-02-21 07:34:17 51°14.281 2°55.285 9.847 0.063787 0.351795 -1.326982
2012-02-21 07:34:22 51°14.294 2°55.273 9.7706 0.063787 0.351795 -1.326982
2012-02-21 07:34:27 51°14.307 2°55.262 9.9156 0.063787 0.351788 -1.326982
2012-02-21 07:34:32 51°14.32 2°55.249 9.8679 0.063787 0.351788 -1.326982
2012-02-21 07:34:37 51°14.333 2°55.238 9.7957 0.063787 0.351788 -1.326982
2012-02-21 07:34:42 51°14.346 2°55.226 9.7731 0.063787 0.351788 -1.326982
2012-02-21 07:34:47 51°14.359 2°55.214 9.8864 0.063787 0.351788 -1.326982
2012-02-21 07:34:52 51°14.373 2°55.201 9.8805 0.063787 0.351795 -1.326982
2012-02-21 07:34:57 51°14.386 2°55.189 9.7974 0.063787 0.351801 -1.326982
2012-02-21 07:35:02 51°14.399 2°55.176 9.9105 0.063787 0.351801 -1.326982
2012-02-21 07:35:07 51°14.412 2°55.162 9.8867 0.063787 0.351807 -1.326982
2012-02-21 07:35:12 51°14.425 2°55.148 9.9046 0.063787 0.351814 -1.326982
2012-02-21 07:35:17 51°14.438 2°55.135 9.9117 0.063787 0.351826 -1.326982
2012-02-21 07:35:22 51°14.451 2°55.121 9.8677 0.063787 0.351833 -1.326982
2012-02-21 07:35:27 51°14.464 2°55.106 9.8555 0.063787 0.351839 -1.326982
2012-02-21 07:35:32 51°14.476 2°55.091 9.7277 0.063787 0.351839 -1.326982
2012-02-21 07:35:37 51°14.489 2°55.075 9.6248 0.063787 0.351845 -1.326982
2012-02-21 07:35:42 51°14.502 2°55.06 9.7149 0.063787 0.351839 -1.326982
2012-02-21 07:35:47 51°14.515 2°55.044 9.8021 0.063787 0.351839 -1.326982
2012-02-21 07:35:51 51°14.525 2°55.032 9.831 0.06389 0.35243 -1.326982
2012-02-21 07:35:56 51°14.538 2°55.016 9.9043 0.06389 0.352417 -1.326982
2012-02-21 07:36:01 51°14.55 2°54.997 9.665 0.06389 0.352417 -1.326982
2012-02-21 07:36:06 51°14.563 2°54.979 9.6898 0.06389 0.352392 -1.326982
2012-02-21 07:36:11 51°14.575 2°54.961 9.7669 0.06389 0.352354 -1.326982
2012-02-21 07:36:15 51°14.586 2°54.947 9.723 0.06389 0.352348 -1.326982
2012-02-21 07:36:20 51°14.598 2°54.93 9.7923 0.06389 0.352361 -1.326982
2012-02-21 07:36:25 51°14.612 2°54.913 9.7456 0.06389 0.352392 -1.326982
2012-02-21 07:36:30 51°14.625 2°54.897 9.7454 0.06389 0.352392 -1.326982
2012-02-21 07:36:35 51°14.639 2°54.879 9.8329 0.06389 0.352443 -1.326982
2012-02-21 07:36:39 51°14.649 2°54.866 9.546 0.06389 0.352493 -1.326982
2012-02-21 07:36:44 51°14.662 2°54.848 9.7181 0.06389 0.352518 -1.326982
2012-02-21 07:36:49 51°14.676 2°54.831 9.6738 0.06389 0.352531 -1.326982
2012-02-21 07:36:54 51°14.689 2°54.815 9.6797 0.06389 0.352531 -1.326982
2012-02-21 07:36:59 51°14.703 2°54.8 9.727 0.06389 0.352531 -1.326982
2012-02-21 07:37:03 51°14.715 2°54.788 9.6886 0.06389 0.352531 -1.326982
2012-02-21 07:37:08 51°14.729 2°54.773 9.8315 0.06389 0.352518 -1.326982
2012-02-21 07:37:14 51°14.746 2°54.756 9.6374 0.06389 0.352512 -1.326982
2012-02-21 07:37:19 51°14.76 2°54.741 9.7718 0.06389 0.352506 -1.326982
2012-02-21 07:37:23 51°14.771 2°54.729 9.5726 0.06389 0.352499 -1.326982
2012-02-21 07:37:28 51°14.785 2°54.713 9.7391 0.06389 0.352499 -1.326982
2012-02-21 07:37:34 51°14.802 2°54.695 9.6597 0.06389 0.352499 -1.326982
2012-02-21 07:37:39 51°14.815 2°54.679 9.6548 0.06389 0.352499 -1.326982
2012-02-21 07:37:45 51°14.832 2°54.66 9.6322 0.06389 0.352506 -1.326982
2012-02-21 07:37:51 51°14.849 2°54.642 9.6427 0.06389 0.352512 -1.326982
2012-02-21 07:37:56 51°14.862 2°54.626 9.6421 0.06389 0.352518 -1.326982
2012-02-21 07:38:02 51°14.879 2°54.609 9.6326 0.06389 0.352518 -1.326982
2012-02-21 07:38:07 51°14.894 2°54.594 9.6683 0.06389 0.352525 -1.326982
2012-02-21 07:38:12 51°14.908 2°54.579 9.5376 0.06389 0.352531 -1.326982
2012-02-21 07:38:17 51°14.923 2°54.566 9.6331 0.063993 0.353116 -1.326982
2012-02-21 07:38:22 51°14.938 2°54.553 9.6477 0.063993 0.353122 -1.326982
2012-02-21 07:38:27 51°14.952 2°54.54 9.6836 0.063993 0.353122 -1.326982
2012-02-21 07:38:32 51°14.967 2°54.527 9.6719 0.063993 0.353122 -1.326982
2012-02-21 07:38:37 51°14.982 2°54.515 9.6538 0.063993 0.353135 -1.326982
2012-02-21 07:38:42 51°14.996 2°54.502 9.5801 0.063993 0.353141 -1.326982
2012-02-21 07:38:47 51°15.011 2°54.488 9.6158 0.063993 0.353148 -1.326982
2012-02-21 07:38:51 51°15.022 2°54.477 9.573 0.063993 0.353148 -1.326982
2012-02-21 07:38:56 51°15.037 2°54.464 9.7502 0.063993 0.35316 -1.326982
2012-02-21 07:39:01 51°15.051 2°54.449 9.6883 0.063993 0.35316 -1.326982
2012-02-21 07:39:05 51°15.062 2°54.437 9.5729 0.063993 0.353173 -1.326982
2012-02-21 07:39:10 51°15.076 2°54.422 9.6815 0.063993 0.35316 -1.326982
2012-02-21 07:39:15 51°15.09 2°54.406 9.4353 0.063993 0.353154 -1.326982
2012-02-21 07:39:19 51°15.1 2°54.393 9.6034 0.063993 0.353154 -1.326982
2012-02-21 07:39:24 51°15.114 2°54.378 9.5205 0.063993 0.35316 -1.326982
2012-02-21 07:39:29 51°15.128 2°54.363 9.5576 0.063993 0.35316 -1.326982
2012-02-21 07:39:34 51°15.142 2°54.348 9.4974 0.063993 0.353179 -1.326982
2012-02-21 07:39:39 51°15.156 2°54.332 9.5447 0.063993 0.353192 -1.326982
2012-02-21 07:39:43 51°15.167 2°54.321 9.558 0.063993 0.353205 -1.326982
2012-02-21 07:39:48 51°15.181 2°54.307 9.4957 0.063993 0.353224 -1.326982
2012-02-21 07:39:54 51°15.198 2°54.294 9.4668 0.063993 0.35323 -1.326982
2012-02-21 07:39:59 51°15.213 2°54.283 9.496 0.063993 0.35323 -1.326982
2012-02-21 07:40:03 51°15.225 2°54.275 9.4674 0.063993 0.353249 -1.326982
2012-02-21 07:40:08 51°15.24 2°54.265 9.4668 0.063993 0.353255 -1.326982
2012-02-21 07:40:14 51°15.258 2°54.254 9.5966 0.063993 0.353274 -1.326982
2012-02-21 07:40:19 51°15.273 2°54.245 9.5461 0.063993 0.353281 -1.326982
2012-02-21 07:40:23 51°15.285 2°54.235 9.4456 0.064096 0.353879 -1.326982
2012-02-21 07:40:28 51°15.299 2°54.225 9.4496 0.064096 0.353879 -1.326982
2012-02-21 07:40:34 51°15.316 2°54.21 9.5174 0.064096 0.353866 -1.326982
2012-02-21 07:40:39 51°15.331 2°54.199 9.4407 0.064096 0.353879 -1.326982
2012-02-21 07:40:43 51°15.343 2°54.19 9.4564 0.064096 0.353866 -1.326982
2012-02-21 07:40:48 51°15.357 2°54.181 9.4095 0.064096 0.353879 -1.326982
2012-02-21 07:40:54 51°15.375 2°54.168 9.4875 0.064096 0.353879 -1.326982
2012-02-21 07:40:59 51°15.39 2°54.16 9.396 0.064096 0.353879 -1.326982
2012-02-21 07:41:03 51°15.403 2°54.155 9.4278 0.064096 0.353891 -1.326982
2012-02-21 07:41:08 51°15.418 2°54.148 9.387 0.064096 0.353891 -1.326982
2012-02-21 07:41:14 51°15.437 2°54.142 9.4422 0.064096 0.353904 -1.326982
2012-02-21 07:41:19 51°15.453 2°54.138 9.3888 0.064096 0.35391 -1.326982
2012-02-21 07:41:23 51°15.465 2°54.136 9.4355 0.064096 0.353923 -1.326982
2012-02-21 07:41:28 51°15.481 2°54.134 9.4263 0.064096 0.353923 -1.326982
2012-02-21 07:41:34 51°15.5 2°54.131 9.4614 0.064096 0.353929 -1.326982
2012-02-21 07:41:39 51°15.516 2°54.131 9.3745 0.064096 0.353936 -1.326982
2012-02-21 07:41:43 51°15.528 2°54.131 9.4471 0.064096 0.353936 -1.326982
2012-02-21 07:41:48 51°15.544 2°54.131 9.4667 0.064096 0.353942 -1.326982
2012-02-21 07:41:54 51°15.563 2°54.132 9.3525 0.064198 0.354528 -1.326982
2012-02-21 07:41:59 51°15.579 2°54.134 9.4573 0.064198 0.354528 -1.326982
2012-02-21 07:42:03 51°15.591 2°54.135 9.4283 0.064198 0.35454 -1.326982
2012-02-21 07:42:08 51°15.607 2°54.138 9.4142 0.064198 0.35454 -1.326982
2012-02-21 07:42:14 51°15.625 2°54.144 9.4593 0.064198 0.354547 -1.326982
2012-02-21 07:42:19 51°15.64 2°54.149 9.38 0.064198 0.354559 -1.326982
2012-02-21 07:42:23 51°15.652 2°54.154 9.386 0.064198 0.354572 -1.326982
2012-02-21 07:42:28 51°15.667 2°54.16 9.4565 0.064198 0.354572 -1.326982
2012-02-21 07:42:34 51°15.685 2°54.167 9.4519 0.064198 0.354585 -1.326982
2012-02-21 07:42:39 51°15.7 2°54.176 9.4579 0.064198 0.354598 -1.326982
2012-02-21 07:42:43 51°15.712 2°54.181 9.4641 0.064198 0.354604 -1.326982
2012-02-21 07:42:48 51°15.727 2°54.187 9.4348 0.064198 0.35461 -1.326982
2012-02-21 07:42:54 51°15.744 2°54.196 9.4649 0.064198 0.35461 -1.326982
2012-02-21 07:42:59 51°15.759 2°54.203 9.4579 0.064198 0.35461 -1.326982
2012-02-21 07:43:03 51°15.771 2°54.208 9.4588 0.064198 0.35461 -1.326982
2012-02-21 07:43:09 51°15.789 2°54.217 9.5221 0.064198 0.354623 -1.326982
2012-02-21 07:43:14 51°15.804 2°54.225 6.5841 0.064404 0.356076 -1.138376
2012-02-21 07:43:19 51°15.819 2°54.231 5.434 0.430866 2.612311 -1.232679
2012-02-21 07:43:23 51°15.831 2°54.235 5.1246 0.389713 2.348298 -0.226782
2012-02-21 07:43:29 51°15.85 2°54.243 4.2933 0.389713 2.348298 -0.226782
2012-02-21 07:43:34 51°15.865 2°54.247 3.8676 0.459471 2.859471 0.244731
2012-02-21 07:43:39 51°15.88 2°54.253 3.7256 0.926427 6.780759 -0.541125
2012-02-21 07:43:43 51°15.893 2°54.256 3.5983 1.942129 15.85388 -0.855468
2012-02-21 07:43:48 51°15.908 2°54.261 3.6561 2.050308 17.707931 -0.698296
2012-02-21 07:43:54 51°15.926 2°54.267 3.4113 2.170281 19.785918 -0.572559
2012-02-21 07:43:59 51°15.942 2°54.273 3.2226 2.170281 19.785918 -0.572559
2012-02-21 07:44:03 51°15.954 2°54.276 3.1809 2.536655 24.318787 -0.698296
2012-02-21 07:44:08 51°15.969 2°54.282 3.1316 2.851499 28.459279 -0.603994
2012-02-21 07:44:13 51°15.984 2°54.287 3.1371 2.966079 30.285609 -0.666862
2012-02-21 07:44:19 51°16.002 2°54.294 3.1329 2.996489 31.075777 -0.666862
2012-02-21 07:44:23 51°16.015 2°54.299 3.0507 2.955951 30.888639 -0.446822
2012-02-21 07:44:28 51°16.029 2°54.305 3.0293 2.955951 30.888639 -0.446822
2012-02-21 07:44:34 51°16.046 2°54.31 2.9598 2.924102 30.749096 -0.603994
2012-02-21 07:44:39 51°16.059 2°54.314 2.9276 2.901769 30.728442 -0.383954
2012-02-21 07:44:43 51°16.069 2°54.315 2.902 2.884709 30.668363 -0.446822
2012-02-21 07:44:48 51°16.08 2°54.318 2.9368 2.867339 30.577559 -0.35252
2012-02-21 07:44:54 51°16.092 2°54.317 2.9154 2.85121 30.452116 -0.415388
2012-02-21 07:44:59 51°16.102 2°54.317 2.8614 2.842319 30.437469 -0.289651
2012-02-21 07:45:03 51°16.109 2°54.317 2.8713 2.842319 30.437469 -0.289651
2012-02-21 07:45:08 51°16.118 2°54.315 2.861 2.838287 30.483112 -0.478257
2012-02-21 07:45:14 51°16.128 2°54.314 2.8326 2.83074 30.444628 -0.163914
2012-02-21 07:45:19 51°16.136 2°54.313 2.836 2.825365 30.442975 -0.258217
2012-02-21 07:45:23 51°16.142 2°54.312 2.848 2.82247 30.431798 -0.321085
2012-02-21 07:45:28 51°16.15 2°54.311 2.8009 2.82247 30.431798 -0.321085
2012-02-21 07:45:34 51°16.159 2°54.311 2.7795 2.819265 30.43459 -0.13248
2012-02-21 07:45:39 51°16.166 2°54.31 2.7726 2.816371 30.422465 -0.35252
2012-02-21 07:45:43 51°16.172 2°54.31 2.7722 2.813993 30.427669 -0.226782
2012-02-21 07:45:49 51°16.181 2°54.31 2.7901 2.812339 30.427528 -0.226782
2012-02-21 07:45:54 51°16.188 2°54.311 2.7638 2.809961 30.424352 -0.13248
2012-02-21 07:45:59 51°16.195 2°54.312 2.7283 2.809961 30.424352 -0.13248
2012-02-21 07:46:03 51°16.2 2°54.313 2.73 2.808307 30.411142 -0.289651
2012-02-21 07:46:09 51°16.209 2°54.314 2.726 2.79921 30.323045 -0.101045
2012-02-21 07:46:14 51°16.216 2°54.317 2.7197 2.793731 30.287402 -0.226782
2012-02-21 07:46:19 51°16.223 2°54.319 2.7223 2.79218 30.284702 -0.069611
2012-02-21 07:46:23 51°16.228 2°54.321 2.716 2.790526 30.272381 -0.069611
2012-02-21 07:46:28 51°16.233 2°54.322 2.7286 2.790526 30.272381 -0.069611
2012-02-21 07:46:34 51°16.24 2°54.324 2.7174 2.789079 30.27464 -0.258217
2012-02-21 07:46:39 51°16.244 2°54.326 2.7044 2.788356 30.295833 -0.069611
2012-02-21 07:46:43 51°16.248 2°54.326 2.7012 2.787218 30.291554 0.056126
2012-02-21 07:46:48 51°16.251 2°54.328 2.6996 2.786081 30.290075 -0.163914
2012-02-21 07:46:54 51°16.255 2°54.329 2.707 2.785668 30.290727 0.08756
2012-02-21 07:46:59 51°16.257 2°54.329 2.673 2.784531 30.282707 0.118994
2012-02-21 07:47:03 51°16.258 2°54.329 2.696 2.784531 30.282707 0.118994
2012-02-21 07:47:09 51°16.26 2°54.329 2.6707 2.783807 30.278706 0.3076
2012-02-21 07:47:14 51°16.26 2°54.329 2.6705 2.782877 30.276899 0.244731
2012-02-21 07:47:19 51°16.26 2°54.328 2.6892 2.781533 30.269198 0.181863
2012-02-21 07:47:23 51°16.26 2°54.327 2.6787 2.780603 30.263649 0.276166
2012-02-21 07:47:28 51°16.26 2°54.327 2.6638 2.780603 30.263649 0.276166
2012-02-21 07:47:34 51°16.261 2°54.326 2.6685 2.780396 30.268648 0.370468
2012-02-21 07:47:39 51°16.261 2°54.326 2.6707 2.779362 30.265598 0.590508
2012-02-21 07:47:43 51°16.261 2°54.325 2.6573 2.779362 30.278699 0.276166
2012-02-21 07:47:49 51°16.262 2°54.324 2.6558 2.778639 30.273756 0.370468
2012-02-21 07:47:54 51°16.262 2°54.324 2.6575 2.778018 30.270054 0.213297
2012-02-21 07:47:59 51°16.262 2°54.323 2.6577 2.778018 30.270054 0.213297
2012-02-21 07:48:03 51°16.262 2°54.322 2.6396 2.777295 30.262302 0.213297
2012-02-21 07:48:08 51°16.262 2°54.322 2.6399 2.776881 30.265762 0.464771
2012-02-21 07:48:14 51°16.263 2°54.322 2.6413 2.776571 30.265783 0.181863
2012-02-21 07:48:19 51°16.263 2°54.321 2.6469 2.775641 30.260227 0.433337
2012-02-21 07:48:23 51°16.263 2°54.32 2.637 2.774814 30.254974 0.3076
2012-02-21 07:48:28 51°16.263 2°54.32 2.6447 2.774814 30.254974 0.3076
2012-02-21 07:48:34 51°16.264 2°54.319 2.6449 2.774917 30.262773 0.433337
2012-02-21 07:48:39 51°16.264 2°54.319 2.6295 2.774504 30.261552 0.559074
2012-02-21 07:48:43 51°16.264 2°54.318 2.6331 2.77409 30.265954 0.684811
2012-02-21 07:48:48 51°16.265 2°54.317 2.6321 2.77409 30.265954 0.496206
2012-02-21 07:48:54 51°16.265 2°54.316 2.6382 2.771196 30.236781 0.559074
2012-02-21 07:48:59 51°16.265 2°54.315 2.6294 2.771196 30.236781 0.559074
2012-02-21 07:49:03 51°16.265 2°54.314 2.629 2.770886 30.236799 0.370468
2012-02-21 07:49:09 51°16.266 2°54.314 2.6287 2.770162 30.229973 0.433337
2012-02-21 07:49:14 51°16.266 2°54.313 2.6289 2.769955 30.230297 0.464771
2012-02-21 07:49:19 51°16.266 2°54.311 2.6282 2.769542 30.231883 0.653377
2012-02-21 07:49:23 51°16.266 2°54.31 2.6188 2.769232 30.227217 0.653377
2012-02-21 07:49:28 51°16.266 2°54.309 2.62 2.769232 30.227217 0.653377
2012-02-21 07:49:34 51°16.266 2°54.307 2.6236 2.768612 30.222568 0.464771
2012-02-21 07:49:39 51°16.266 2°54.306 2.6174 2.768095 30.219162 0.52764
2012-02-21 07:49:43 51°16.266 2°54.306 2.6096 2.767061 30.211412 0.684811
2012-02-21 07:49:49 51°16.266 2°54.303 2.6122 2.765924 30.19867 0.559074
2012-02-21 07:49:54 51°16.266 2°54.302 2.6099 2.765304 30.194019 0.339034
2012-02-21 07:49:59 51°16.266 2°54.302 2.6165 2.765304 30.194019 0.339034
2012-02-21 07:50:03 51°16.267 2°54.301 2.6077 2.761479 30.153624 0.52764
2012-02-21 07:50:09 51°16.267 2°54.3 2.6086 2.742561 29.927109 0.464771
2012-02-21 07:50:14 51°16.267 2°54.299 2.6112 2.743182 29.93642 0.590508
2012-02-21 07:50:19 51°16.267 2°54.298 2.6131 2.742872 29.935479 0.464771
2012-02-21 07:50:23 51°16.266 2°54.297 2.6078 2.742458 29.933294 0.464771
2012-02-21 07:50:29 51°16.266 2°54.295 2.6148 2.741011 29.921469 0.401903
2012-02-21 07:50:34 51°16.266 2°54.294 2.6102 2.741011 29.921469 0.401903
2012-02-21 07:50:39 51°16.266 2°54.293 2.6136 2.740908 29.919297 0.559074
2012-02-21 07:50:43 51°16.266 2°54.293 2.6045 2.740287 29.914626 0.433337
2012-02-21 07:50:48 51°16.266 2°54.291 2.6057 2.740908 29.923011 0.401903
2012-02-21 07:50:54 51°16.266 2°54.29 2.6082 2.739874 29.91244 0.653377
2012-02-21 07:50:59 51°16.266 2°54.289 2.6005 2.739874 29.91244 0.653377
2012-02-21 07:51:03 51°16.266 2°54.288 2.5995 2.739254 29.906839 0.433337
2012-02-21 07:51:08 51°16.265 2°54.287 2.6033 2.739047 29.905282 0.52764
2012-02-21 07:51:14 51°16.265 2°54.286 2.5984 2.73915 29.907453 0.559074
2012-02-21 07:51:19 51°16.265 2°54.285 2.5951 2.738117 29.89688 0.779114
2012-02-21 07:51:23 51°16.265 2°54.284 2.6005 2.739461 29.914896 0.401903
2012-02-21 07:51:28 51°16.264 2°54.283 2.5971 2.739461 29.914896 0.401903
2012-02-21 07:51:34 51°16.264 2°54.282 2.5911 2.736256 29.879145 0.401903
2012-02-21 07:51:39 51°16.264 2°54.282 2.5962 2.735119 29.867327 0.339034
2012-02-21 07:51:43 51°16.264 2°54.281 2.5918 2.733362 29.846196 0.52764
2012-02-21 07:51:48 51°16.264 2°54.28 2.5963 2.732742 29.840592 0.401903
2012-02-21 07:51:54 51°16.263 2°54.278 2.5944 2.732225 29.837157 0.684811
2012-02-21 07:51:59 51°16.263 2°54.276 2.593 2.732225 29.837157 0.684811
2012-02-21 07:52:03 51°16.263 2°54.276 2.6031 2.729951 29.810737 0.339034
2012-02-21 07:52:08 51°16.263 2°54.275 2.5951 2.729641 29.809786 0.401903
2012-02-21 07:52:14 51°16.263 2°54.275 2.5923 2.726023 29.768133 0.621943
2012-02-21 07:52:19 51°16.263 2°54.274 2.5871 2.726229 29.772468 0.276166
2012-02-21 07:52:23 51°16.263 2°54.273 2.5906 2.726023 29.770907 0.433337
2012-02-21 07:52:29 51°16.263 2°54.272 2.5846 2.723645 29.743244 0.559074
2012-02-21 07:52:34 51°16.262 2°54.272 2.5863 2.723645 29.743244 0.559074
2012-02-21 07:52:39 51°16.262 2°54.271 2.5865 2.722508 29.72865 0.433337
2012-02-21 07:52:43 51°16.262 2°54.27 2.5926 2.720958 29.710009 0.370468
2012-02-21 07:52:49 51°16.262 2°54.269 2.5885 2.720337 29.703476 0.464771
2012-02-21 07:52:54 51°16.261 2°54.268 2.5869 2.719304 29.693817 0.779114
2012-02-21 07:52:59 51°16.261 2°54.267 2.5854 2.719304 29.693817 0.779114
2012-02-21 07:53:03 51°16.261 2°54.267 2.5806 2.718787 29.689449 0.621943
2012-02-21 07:53:08 51°16.261 2°54.266 2.5803 2.71889 29.693459 0.433337
2012-02-21 07:53:14 51°16.26 2°54.265 2.5802 2.717443 29.676982 0.433337
2012-02-21 07:53:19 51°16.26 2°54.264 2.5833 2.71641 29.663632 0.433337
2012-02-21 07:53:23 51°16.26 2°54.264 2.5855 2.71641 29.664554 0.684811
2012-02-21 07:53:28 51°16.26 2°54.264 2.5919 2.71641 29.664554 0.684811
2012-02-21 07:53:33 51°16.26 2°54.264 2.5876 2.715583 29.656455 0.401903
2012-02-21 07:53:39 51°16.26 2°54.262 2.5825 2.714342 29.643385 0.496206
2012-02-21 07:53:43 51°16.26 2°54.261 2.5827 2.713309 29.6328 0.401903
2012-02-21 07:53:49 51°16.261 2°54.258 2.5768 2.682713 29.264331 0.52764
2012-02-21 07:53:54 51°16.262 2°54.255 2.5807 2.678682 29.216857 0.653377
2012-02-21 07:53:59 51°16.264 2°54.251 2.5779 2.678889 29.219338 0.621943
2012-02-21 07:54:03 51°16.266 2°54.246 2.5828 2.678889 29.219338 0.621943
2012-02-21 07:54:08 51°16.268 2°54.24 2.5841 2.678269 29.211895 0.621943
2012-02-21 07:54:14 51°16.272 2°54.231 2.581 2.678062 29.210322 0.496206
2012-02-21 07:54:19 51°16.276 2°54.223 2.5784 2.677339 29.206177 0.621943
2012-02-21 07:54:23 51°16.279 2°54.215 2.5776 2.676099 29.192197 0.590508
2012-02-21 07:54:29 51°16.284 2°54.202 2.581 2.676099 29.192197 0.590508
2012-02-21 07:54:34 51°16.289 2°54.189 2.5763 2.674962 29.180365 0.684811
2012-02-21 07:54:39 51°16.294 2°54.177 2.5784 2.672688 29.152168 0.74768
2012-02-21 07:54:43 51°16.298 2°54.166 2.581 2.673204 29.15837 0.496206
2012-02-21 07:54:48 51°16.304 2°54.152 2.5746 2.672171 29.146872 0.370468
2012-02-21 07:54:54 51°16.312 2°54.135 2.5712 2.671758 29.144629 0.339034
2012-02-21 07:54:59 51°16.318 2°54.119 2.5748 2.671758 29.144629 0.339034
2012-02-21 07:55:03 51°16.324 2°54.107 2.5763 2.671447 29.140907 0.716245
2012-02-21 07:55:08 51°16.331 2°54.091 2.5776 2.670414 29.128503 0.464771
2012-02-21 07:55:14 51°16.34 2°54.071 2.571 2.670931 29.135611 0.653377
2012-02-21 07:55:19 51°16.348 2°54.054 2.5658 2.662249 29.032338 0.370468
2012-02-21 07:55:23 51°16.354 2°54.04 2.5722 2.660078 29.009006 0.464771
2012-02-21 07:55:28 51°16.363 2°54.023 2.5744 2.660078 29.009006 0.464771
2012-02-21 07:55:33 51°16.372 2°54.005 2.5813 2.659665 29.004948 0.496206
2012-02-21 07:55:39 51°16.383 2°53.984 2.572 2.65305 28.923808 0.496206
2012-02-21 07:55:43 51°16.391 2°53.969 2.5729 2.792183 30.598218 0.52764
2012-02-21 07:55:48 51°16.401 2°53.95 2.5618 2.791873 30.595424 0.181863
2012-02-21 07:55:54 51°16.413 2°53.927 2.5621 2.79177 30.596078 0.3076
2012-02-21 07:55:59 51°16.424 2°53.908 2.5548 2.791563 30.594532 0.3076
2012-02-21 07:56:03 51°16.433 2°53.894 2.5559 2.791563 30.594532 0.3076
2012-02-21 07:56:08 51°16.445 2°53.875 2.5572 2.791459 30.591381 0.464771
2012-02-21 07:56:14 51°16.458 2°53.852 2.5526 2.791459 30.593284 0.401903
2012-02-21 07:56:19 51°16.469 2°53.83 2.5609 2.791356 30.592986 0.370468
2012-02-21 07:56:23 51°16.477 2°53.813 2.56 2.791253 30.594593 0.873417
2012-02-21 07:56:29 51°16.49 2°53.788 2.551 2.791253 30.594593 0.873417
2012-02-21 07:56:34 51°16.5 2°53.765 2.547 2.790012 30.584364 0.52764
2012-02-21 07:56:39 51°16.51 2°53.743 2.5503 2.789599 30.581271 0.684811
2012-02-21 07:56:43 51°16.518 2°53.725 2.5446 2.790116 30.591324 0.433337
2012-02-21 07:56:48 51°16.528 2°53.703 2.549 2.790322 30.594774 0.276166
2012-02-21 07:56:54 51°16.54 2°53.676 2.5483 2.790219 30.592573 0.653377
2012-02-21 07:56:59 51°16.551 2°53.654 2.5514 2.790219 30.592573 0.653377
2012-02-21 07:57:03 51°16.559 2°53.636 2.5533 2.790116 30.593227 0.401903
2012-02-21 07:57:09 51°16.572 2°53.611 2.5581 2.790012 30.594835 0.3076
2012-02-21 07:57:14 51°16.584 2°53.589 2.5497 2.789806 30.595192 0.621943
2012-02-21 07:57:19 51°16.595 2°53.569 2.5497 2.789495 30.593349 0.370468
2012-02-21 07:57:23 51°16.604 2°53.552 2.5463 2.789185 30.5896 0.401903
2012-02-21 07:57:28 51°16.616 2°53.532 2.5517 2.789185 30.5896 0.401903
2012-02-21 07:57:34 51°16.629 2°53.508 2.5537 2.788979 30.586149 0.276166
2012-02-21 07:57:39 51°16.642 2°53.488 2.5526 2.788772 30.58365 0.339034
2012-02-21 07:57:43 51°16.651 2°53.472 2.5565 2.788668 30.581449 0.3076
2012-02-21 07:57:48 51°16.663 2°53.452 2.5529 2.789806 30.596145 0.370468
2012-02-21 07:57:54 51°16.677 2°53.429 2.5529 2.789909 30.598347 0.433337
2012-02-21 07:57:59 51°16.689 2°53.409 2.5447 2.789599 30.595551 0.559074
2012-02-21 07:58:03 51°16.698 2°53.392 2.5486 2.789599 30.595551 0.559074
2012-02-21 07:58:08 51°16.709 2°53.372 2.5444 2.789495 30.593349 0.370468
2012-02-21 07:58:13 51°16.721 2°53.352 2.5463 2.789599 30.593646 0.52764
2012-02-21 07:58:19 51°16.734 2°53.328 2.5471 2.789806 30.597097 0.401903
2012-02-21 07:58:23 51°16.743 2°53.312 2.5424 2.790323 30.604298 0.370468
2012-02-21 07:58:29 51°16.757 2°53.287 2.5395 2.790323 30.604298 0.370468
2012-02-21 07:58:34 51°16.768 2°53.266 2.5344 2.790323 30.604298 0.370468
2012-02-21 07:58:39 51°16.779 2°53.246 2.5369 2.790219 30.605906 0.433337
2012-02-21 07:58:43 51°16.788 2°53.229 2.535 2.790116 30.606562 0.779114
2012-02-21 07:58:48 51°16.798 2°53.208 2.5374 2.790426 30.609359 0.653377
2012-02-21 07:58:54 51°16.811 2°53.182 2.536 2.790426 30.612218 0.779114
2012-02-21 07:58:59 51°16.821 2°53.161 2.5357 2.790426 30.612218 0.779114
2012-02-21 07:59:03 51°16.829 2°53.144 2.5342 2.790012 30.610078 0.559074
2012-02-21 07:59:09 51°16.841 2°53.117 2.5325 2.789702 30.609187 0.779114
2012-02-21 07:59:14 51°16.85 2°53.095 2.529 2.789909 30.615501 0.684811
2012-02-21 07:59:19 51°16.86 2°53.073 2.5232 2.789909 30.615501 0.779114
2012-02-21 07:59:23 51°16.867 2°53.055 2.5276 2.789909 30.616455 0.967719
2012-02-21 07:59:29 51°16.878 2°53.03 2.5318 2.789806 30.616158 0.74768
2012-02-21 07:59:34 51°16.889 2°53.009 2.5322 2.789806 30.616158 0.74768
2012-02-21 07:59:39 51°16.898 2°52.988 2.5254 2.789909 30.618362 0.464771
2012-02-21 07:59:43 51°16.907 2°52.972 2.5328 2.790736 30.629319 0.904851
2012-02-21 07:59:48 51°16.917 2°52.951 2.5315 2.790529 30.628726 0.621943
2012-02-21 07:59:54 51°16.929 2°52.927 2.539 2.790116 30.625633 1.030588
2012-02-21 07:59:59 51°16.94 2°52.906 2.5376 2.790116 30.625633 1.030588
2012-02-21 08:00:03 51°16.948 2°52.89 2.5296 2.790116 30.625633 0.904851
2012-02-21 08:00:08 51°16.959 2°52.869 2.5325 2.790013 30.623428 0.999154
2012-02-21 08:00:14 51°16.972 2°52.845 2.5432 2.790013 30.624382 0.873417
2012-02-21 08:00:19 51°16.983 2°52.824 2.5438 2.789702 30.62063 0.873417
2012-02-21 08:00:23 51°16.992 2°52.808 2.5431 2.789702 30.618723 1.187759
2012-02-21 08:00:28 51°17.003 2°52.788 2.5327 2.789702 30.618723 1.187759
2012-02-21 08:00:34 51°17.016 2°52.763 2.5361 2.790116 30.62277 0.873417
2012-02-21 08:00:39 51°17.027 2°52.743 2.5304 2.790736 30.632182 0.904851
2012-02-21 08:00:43 51°17.037 2°52.728 2.535 2.790736 30.632182 0.684811
2012-02-21 08:00:49 51°17.052 2°52.706 2.529 2.79084 30.63057 0.779114
2012-02-21 08:00:54 51°17.064 2°52.689 2.531 2.790736 30.626457 0.779114
2012-02-21 08:00:59 51°17.077 2°52.672 2.5285 2.790736 30.626457 0.779114
2012-02-21 08:01:03 51°17.087 2°52.659 2.5341 2.790426 30.621752 0.967719
2012-02-21 08:01:08 51°17.1 2°52.643 2.5351 2.789806 30.616158 0.999154
2012-02-21 08:01:14 51°17.116 2°52.624 2.5306 2.79115 30.633367 0.936285
2012-02-21 08:01:19 51°17.129 2°52.609 2.5259 2.79115 30.635275 1.030588
2012-02-21 08:01:23 51°17.14 2°52.596 2.5317 2.79146 30.640936 0.936285
2012-02-21 08:01:29 51°17.156 2°52.578 2.5281 2.79146 30.641891 0.967719
2012-02-21 08:01:34 51°17.169 2°52.561 2.5211 2.79146 30.641891 0.967719
2012-02-21 08:01:39 51°17.181 2°52.544 2.5211 2.791357 30.64064 0.999154
2012-02-21 08:01:43 51°17.191 2°52.53 2.5221 2.790943 30.634683 0.999154
2012-02-21 08:01:49 51°17.207 2°52.51 2.5238 2.790529 30.629681 0.873417
2012-02-21 08:01:54 51°17.219 2°52.492 2.5204 2.790219 30.627837 1.030588
2012-02-21 08:01:59 51°17.231 2°52.475 2.5175 2.790219 30.627837 1.030588
2012-02-21 08:02:03 51°17.241 2°52.46 2.5197 2.789702 30.622538 1.282062
2012-02-21 08:02:08 51°17.253 2°52.441 2.5185 2.789703 30.626355 0.841982
2012-02-21 08:02:14 51°17.267 2°52.419 2.5173 2.789703 30.629219 0.936285
2012-02-21 08:02:19 51°17.28 2°52.401 2.5198 2.789703 30.629219 1.344931
2012-02-21 08:02:23 51°17.289 2°52.387 2.5182 2.789599 30.629877 0.841982
2012-02-21 08:02:28 51°17.302 2°52.369 2.5259 2.789599 30.629877 0.841982
2012-02-21 08:02:34 51°17.317 2°52.348 2.5186 2.789599 30.630831 0.873417
2012-02-21 08:02:39 51°17.329 2°52.33 2.5212 2.79053 30.644001 1.062022
2012-02-21 08:02:43 51°17.339 2°52.316 2.5195 2.790426 30.64275 0.967719
2012-02-21 08:02:48 51°17.351 2°52.298 2.5167 2.789082 30.628395 0.684811
2012-02-21 08:02:54 51°17.366 2°52.276 2.5223 2.789082 30.62744 1.030588
2012-02-21 08:02:59 51°17.378 2°52.258 2.5183 2.789082 30.62744 1.030588
2012-02-21 08:03:03 51°17.388 2°52.243 2.5258 2.788669 30.622436 1.030588
2012-02-21 08:03:08 51°17.4 2°52.225 2.5227 2.79146 30.655262 1.062022
2012-02-21 08:03:14 51°17.415 2°52.202 2.5202 2.790426 30.643705 1.030588
2012-02-21 08:03:19 51°17.427 2°52.184 2.5197 2.791357 30.655921 1.156325
2012-02-21 08:03:23 51°17.436 2°52.169 2.5305 2.791253 30.65467 0.999154
2012-02-21 08:03:29 51°17.451 2°52.148 2.5219 2.791253 30.65467 0.999154
2012-02-21 08:03:34 51°17.464 2°52.13 2.5235 2.79177 30.659971 1.282062
2012-02-21 08:03:39 51°17.476 2°52.112 2.5233 2.79177 30.659971 0.999154
2012-02-21 08:03:43 51°17.486 2°52.098 2.5259 2.791357 30.654966 1.219194
2012-02-21 08:03:49 51°17.501 2°52.076 2.5308 2.791253 30.653715 1.124891
2012-02-21 08:03:54 51°17.513 2°52.059 2.527 2.791357 30.653055 1.124891
2012-02-21 08:03:59 51°17.526 2°52.041 2.5251 2.791357 30.653055 1.124891
2012-02-21 08:04:03 51°17.536 2°52.027 2.5285 2.791253 30.650848 1.344931
2012-02-21 08:04:09 51°17.551 2°52.006 2.5281 2.791047 30.648346 1.313496
2012-02-21 08:04:14 51°17.563 2°51.99 2.5329 2.790736 30.645548 1.156325
2012-02-21 08:04:19 51°17.576 2°51.972 2.5259 2.790013 30.63679 1.062022
2012-02-21 08:04:23 51°17.585 2°51.959 2.5246 2.791253 30.649893 1.156325
2012-02-21 08:04:28 51°17.598 2°51.942 2.5305 2.791253 30.649893 1.156325
2012-02-21 08:04:34 51°17.612 2°51.921 2.5257 2.79115 30.648642 1.344931
2012-02-21 08:04:39 51°17.625 2°51.904 2.5294 2.790943 30.64614 1.187759
2012-02-21 08:04:43 51°17.635 2°51.891 2.5317 2.79053 30.640181 1.187759
2012-02-21 08:04:48 51°17.648 2°51.874 2.5335 2.790323 30.635769 1.344931
2012-02-21 08:04:54 51°17.663 2°51.855 2.531 2.790013 30.631062 1.627839
2012-02-21 08:04:59 51°17.675 2°51.837 2.5307 2.790013 30.631062 1.627839
2012-02-21 08:05:03 51°17.685 2°51.824 2.5319 2.790013 30.632971 1.282062
2012-02-21 08:05:08 51°17.698 2°51.807 2.5361 2.789392 30.625466 1.313496
2012-02-21 08:05:14 51°17.713 2°51.787 2.532 2.788979 30.620462 1.313496
2012-02-21 08:05:19 51°17.725 2°51.769 2.534 2.791563 30.649826 1.407799
2012-02-21 08:05:23 51°17.735 2°51.754 2.5428 2.79146 30.648575 1.376365
2012-02-21 08:05:29 51°17.749 2°51.732 2.5418 2.79146 30.648575 1.376365
2012-02-21 08:05:34 51°17.761 2°51.714 2.5448 2.791253 30.646073 1.502102
2012-02-21 08:05:39 51°17.772 2°51.695 2.5427 2.790116 30.632313 1.187759
2012-02-21 08:05:43 51°17.781 2°51.679 2.5426 2.791253 30.646073 1.124891
2012-02-21 08:05:48 51°17.793 2°51.66 2.5419 2.790633 30.635703 1.062022
2012-02-21 08:05:54 51°17.806 2°51.636 2.5478 2.790219 30.6307 1.313496
2012-02-21 08:05:59 51°17.818 2°51.618 2.5449 2.790219 30.6307 1.313496
2012-02-21 08:06:03 51°17.827 2°51.602 2.5487 2.790013 30.62629 1.344931
2012-02-21 08:06:09 51°17.841 2°51.579 2.5496 2.789702 30.621584 1.062022
2012-02-21 08:06:14 51°17.854 2°51.561 2.5498 2.789702 30.619676 0.999154
2012-02-21 08:06:19 51°17.866 2°51.544 2.5544 2.788979 30.610923 0.999154
2012-02-21 08:06:23 51°17.876 2°51.53 2.5541 2.788669 30.605265 1.124891
2012-02-21 08:06:29 51°17.891 2°51.509 2.557 2.789909 30.618362 1.062022
2012-02-21 08:06:34 51°17.904 2°51.492 2.5558 2.789909 30.618362 1.062022
2012-02-21 08:06:39 51°17.916 2°51.473 2.5569 2.789909 30.617408 1.093456
2012-02-21 08:06:43 51°17.925 2°51.457 2.5589 2.789702 30.613001 0.936285
2012-02-21 08:06:48 51°17.937 2°51.438 2.56 2.789599 30.610797 1.030588
2012-02-21 08:06:54 51°17.951 2°51.415 2.562 2.789496 30.60764 1.124891
2012-02-21 08:06:59 51°17.963 2°51.396 2.5635 2.789496 30.60764 1.124891
2012-02-21 08:07:03 51°17.972 2°51.381 2.5665 2.789185 30.602937 0.779114
2012-02-21 08:07:09 51°17.987 2°51.358 2.5711 2.787945 30.586984 0.999154
2012-02-21 08:07:14 51°17.999 2°51.339 2.5713 2.787014 30.574783 1.062022
2012-02-21 08:07:19 51°18.012 2°51.323 2.5695 2.789599 30.605078 1.030588
2012-02-21 08:07:23 51°18.023 2°51.311 2.5754 2.789909 30.606921 1.282062
2012-02-21 08:07:28 51°18.037 2°51.296 2.5764 2.789909 30.606921 1.282062
2012-02-21 08:07:34 51°18.054 2°51.28 2.5779 2.789599 30.600313 1.062022
2012-02-21 08:07:39 51°18.068 2°51.268 2.5859 2.789082 30.59216 1.250628
2012-02-21 08:07:43 51°18.08 2°51.26 2.5823 2.789909 30.599299 0.936285
2012-02-21 08:07:49 51°18.098 2°51.248 2.5848 2.789495 30.590492 1.282062
2012-02-21 08:07:54 51°18.113 2°51.237 2.5859 2.788772 30.579843 1.282062
2012-02-21 08:07:59 51°18.128 2°51.228 2.5878 2.788772 30.579843 1.282062
2012-02-21 08:08:03 51°18.14 2°51.221 2.591 2.789599 30.586981 1.344931
2012-02-21 08:08:08 51°18.155 2°51.212 2.5914 2.789599 30.585078 1.124891
2012-02-21 08:08:14 51°18.173 2°51.201 2.6004 2.788358 30.568186 1.659273
2012-02-21 08:08:19 51°18.188 2°51.192 2.6024 2.787118 30.550347 1.376365
2012-02-21 08:08:23 51°18.201 2°51.186 2.5989 2.786497 30.541905 1.250628
2012-02-21 08:08:29 51°18.219 2°51.176 2.6037 2.78629 30.537507 1.282062
2012-02-21 08:08:34 51°18.235 2°51.167 2.6093 2.78629 30.537507 1.282062
2012-02-21 08:08:39 51°18.25 2°51.158 2.6096 2.788772 30.566525 1.439233
2012-02-21 08:08:43 51°18.262 2°51.152 2.6117 2.789702 30.575861 1.470668
2012-02-21 08:08:48 51°18.278 2°51.145 2.6143 2.789185 30.565815 1.250628
2012-02-21 08:08:54 51°18.296 2°51.136 2.6182 2.789599 30.568907 1.124891
2012-02-21 08:08:59 51°18.311 2°51.128 2.6263 2.789599 30.568907 1.124891
2012-02-21 08:09:03 51°18.323 2°51.123 2.6251 2.789082 30.560764 1.093456
2012-02-21 08:09:08 51°18.337 2°51.115 2.6307 2.789082 30.556963 1.219194
2012-02-21 08:09:14 51°18.353 2°51.107 2.6351 2.789185 30.555361 1.156325
2012-02-21 08:09:19 51°18.366 2°51.1 2.6345 2.789392 30.555007 1.093456
2012-02-21 08:09:23 51°18.376 2°51.095 2.6414 2.789082 30.548414 1.062022
2012-02-21 08:09:29 51°18.39 2°51.088 2.6383 2.789082 30.548414 1.062022
2012-02-21 08:09:34 51°18.402 2°51.083 2.6414 2.789082 30.544616 1.282062
2012-02-21 08:09:39 51°18.412 2°51.077 2.6421 2.789288 30.543315 1.313496
2012-02-21 08:09:43 51°18.42 2°51.072 2.6421 2.789288 30.539518 1.250628
2012-02-21 08:09:48 51°18.431 2°51.066 2.6446 2.788668 30.527291 1.156325
2012-02-21 08:09:54 51°18.442 2°51.06 2.644 2.788461 30.521952 1.062022
2012-02-21 08:09:59 51°18.451 2°51.054 2.642 2.788461 30.521952 1.062022
2012-02-21 08:10:03 51°18.457 2°51.048 2.6476 2.788048 30.515068 1.250628
2012-02-21 08:10:09 51°18.465 2°51.041 2.6463 2.786187 30.490731 1.030588
2012-02-21 08:10:14 51°18.472 2°51.035 2.649 2.78598 30.486343 0.999154
2012-02-21 08:10:19 51°18.478 2°51.029 2.6466 2.786497 30.49163 1.093456
2012-02-21 08:10:23 51°18.482 2°51.024 2.6471 2.786083 30.485696 1.062022
2012-02-21 08:10:28 51°18.487 2°51.018 2.651 2.786083 30.485696 1.062022
2012-02-21 08:10:34 51°18.492 2°51.01 2.6514 2.78567 30.479764 1.219194
2012-02-21 08:10:39 51°18.495 2°51.004 2.653 2.785049 30.471339 0.873417
2012-02-21 08:10:43 51°18.497 2°51 2.6523 2.784533 30.465107 1.093456
2012-02-21 08:10:49 51°18.499 2°50.994 2.6566 2.784119 30.459175 1.030588
2012-02-21 08:10:54 51°18.5 2°50.99 2.6549 2.783085 30.446712 1.062022
2012-02-21 08:10:59 51°18.501 2°50.986 2.6595 2.783085 30.446712 1.062022
2012-02-21 08:11:03 51°18.501 2°50.984 2.6601 2.783809 30.454491 0.873417
2012-02-21 08:11:09 51°18.5 2°50.982 2.6604 2.791252 30.54329 0.873417
2012-02-21 08:11:14 51°18.499 2°50.98 2.6599 2.790735 30.536109 0.904851
2012-02-21 08:11:19 51°18.498 2°50.979 2.6595 2.790218 30.528928 0.841982
2012-02-21 08:11:23 51°18.497 2°50.977 2.6591 2.789908 30.523293 0.716245
2012-02-21 08:11:28 51°18.496 2°50.976 2.6624 2.789908 30.523293 0.716245
2012-02-21 08:11:34 51°18.495 2°50.974 2.6629 2.784119 30.451611 0.841982
2012-02-21 08:11:39 51°18.494 2°50.973 2.6604 2.790425 30.525734 0.74768
2012-02-21 08:11:43 51°18.493 2°50.972 2.6605 2.789495 30.511676 1.030588
2012-02-21 08:11:48 51°18.492 2°50.971 2.6633 2.788874 30.505146 0.779114
2012-02-21 08:11:54 51°18.491 2°50.969 2.6633 2.787634 30.489246 0.810548
2012-02-21 08:11:59 51°18.49 2°50.968 2.6661 2.789908 30.516661 0.936285
2012-02-21 08:12:03 51°18.49 2°50.967 2.6703 2.789908 30.516661 0.936285
2012-02-21 08:12:09 51°18.489 2°50.966 2.6657 2.789288 30.508237 0.684811
2012-02-21 08:12:14 51°18.488 2°50.965 2.6654 2.788047 30.492337 0.716245
2012-02-21 08:12:19 51°18.487 2°50.964 2.6659 2.785773 30.464927 0.74768
2012-02-21 08:12:23 51°18.486 2°50.963 2.6649 2.790528 30.522243 0.936285
2012-02-21 08:12:28 51°18.485 2°50.962 2.6668 2.790528 30.522243 0.936285
2012-02-21 08:12:34 51°18.484 2°50.961 2.6692 2.790735 30.523788 0.716245
2012-02-21 08:12:39 51°18.483 2°50.96 2.6674 2.788978 30.500712 0.74768
2012-02-21 08:12:43 51°18.482 2°50.959 2.6732 2.788254 30.491044 0.590508
2012-02-21 08:12:49 51°18.481 2°50.957 2.6763 2.784326 30.444651 0.74768
2012-02-21 08:12:54 51°18.48 2°50.956 2.675 2.781741 30.412569 0.841982
2012-02-21 08:12:59 51°18.48 2°50.955 2.6716 2.781741 30.412569 0.841982
2012-02-21 08:13:03 51°18.479 2°50.954 2.6743 2.784739 30.448689 0.779114
2012-02-21 08:13:09 51°18.478 2°50.953 2.6731 2.779984 30.391398 0.74768
2012-02-21 08:13:14 51°18.477 2°50.952 2.6751 2.778536 30.373021 0.841982
2012-02-21 08:13:19 51°18.476 2°50.951 2.6735 2.785876 30.459555 0.936285
2012-02-21 08:13:23 51°18.475 2°50.95 2.6753 2.790322 30.512175 0.684811
2012-02-21 08:13:27 51°18.475 2°50.949 2.6733 2.790322 30.512175 0.684811
2012-02-21 08:13:34 51°18.473 2°50.948 2.6735 2.790115 30.50779 0.779114
2012-02-21 08:13:39 51°18.472 2°50.947 2.6734 2.790115 30.50779 0.74768
2012-02-21 08:13:43 51°18.471 2°50.946 2.6769 2.790115 30.50779 0.810548
2012-02-21 08:13:48 51°18.47 2°50.945 2.677 2.791045 30.518055 0.841982
2012-02-21 08:13:54 51°18.469 2°50.943 2.6756 2.790942 30.516809 0.74768
2012-02-21 08:13:59 51°18.468 2°50.942 2.6775 2.790942 30.516809 0.74768
2012-02-21 08:14:03 51°18.467 2°50.941 2.6794 2.790942 30.515862 0.684811
2012-02-21 08:14:08 51°18.467 2°50.941 2.6752 2.790839 30.514617 0.779114
2012-02-21 08:14:14 51°18.465 2°50.939 2.675 2.790839 30.515563 0.779114
2012-02-21 08:14:19 51°18.465 2°50.938 2.6772 2.790839 30.51367 0.810548
2012-02-21 08:14:23 51°18.464 2°50.937 2.6783 2.790839 30.51367 0.52764
2012-02-21 08:14:28 51°18.463 2°50.936 2.6787 2.790839 30.51367 0.52764
2012-02-21 08:14:34 51°18.462 2°50.935 2.6824 2.790942 30.514916 0.904851
2012-02-21 08:14:39 51°18.461 2°50.935 2.68 2.790942 30.514916 0.621943
2012-02-21 08:14:43 51°18.46 2°50.933 2.6805 2.790839 30.51367 0.936285
2012-02-21 08:14:49 51°18.459 2°50.932 2.6846 2.790839 30.51367 0.873417
2012-02-21 08:14:54 51°18.458 2°50.931 2.6812 2.790735 30.511478 0.841982
2012-02-21 08:14:59 51°18.457 2°50.93 2.6828 2.790735 30.511478 0.841982
2012-02-21 08:15:03 51°18.456 2°50.929 2.6875 2.790838 30.512723 0.716245
2012-02-21 08:15:09 51°18.455 2°50.928 2.6822 2.790838 30.511777 0.52764
2012-02-21 08:15:14 51°18.454 2°50.926 2.6844 2.790942 30.512076 0.841982
2012-02-21 08:15:19 51°18.453 2°50.925 2.6843 2.790942 30.511129 0.716245
2012-02-21 08:15:23 51°18.452 2°50.925 2.687 2.790942 30.511129 0.810548
2012-02-21 08:15:29 51°18.451 2°50.923 2.6855 2.790838 30.508937 0.716245
2012-02-21 08:15:34 51°18.45 2°50.922 2.687 2.790838 30.508937 0.716245
2012-02-21 08:15:39 51°18.449 2°50.922 2.6854 2.790942 30.509236 0.653377
2012-02-21 08:15:43 51°18.449 2°50.921 2.6881 2.791045 30.510482 0.590508
2012-02-21 08:15:48 51°18.447 2°50.919 2.6843 2.791045 30.509535 0.621943
2012-02-21 08:15:54 51°18.446 2°50.918 2.6886 2.791045 30.508589 0.841982
2012-02-21 08:15:59 51°18.445 2°50.917 2.6901 2.791045 30.508589 0.841982
2012-02-21 08:16:03 51°18.444 2°50.916 2.6889 2.791149 30.509835 0.621943
2012-02-21 08:16:08 51°18.443 2°50.915 2.6882 2.791149 30.508888 0.684811
2012-02-21 08:16:14 51°18.442 2°50.914 2.691 2.791149 30.508888 0.653377
2012-02-21 08:16:19 51°18.441 2°50.913 2.6888 2.791149 30.508888 0.590508
2012-02-21 08:16:23 51°18.441 2°50.912 2.6891 2.791149 30.507942 0.873417
2012-02-21 08:16:29 51°18.439 2°50.911 2.6952 2.791149 30.507942 0.873417
2012-02-21 08:16:34 51°18.438 2°50.91 2.6966 2.791149 30.506996 0.716245
2012-02-21 08:16:39 51°18.437 2°50.908 2.701 2.791149 30.506996 0.559074
2012-02-21 08:16:43 51°18.437 2°50.907 2.6972 2.791252 30.507295 0.621943
2012-02-21 08:16:48 51°18.436 2°50.907 2.693 2.790321 30.497034 0.779114
2012-02-21 08:16:54 51°18.435 2°50.905 2.6922 2.791149 30.50605 0.653377
2012-02-21 08:16:59 51°18.434 2°50.904 2.6911 2.791149 30.50605 0.653377
2012-02-21 08:17:03 51°18.433 2°50.903 2.6948 2.791149 30.505104 0.684811
2012-02-21 08:17:09 51°18.432 2°50.902 2.6967 2.791252 30.503511 0.810548
2012-02-21 08:17:14 51°18.431 2°50.901 2.6956 2.791355 30.50381 0.590508
2012-02-21 08:17:19 51°18.43 2°50.9 2.6974 2.791355 30.501919 0.810548
2012-02-21 08:17:23 51°18.43 2°50.899 2.6933 2.791355 30.50381 0.779114
2012-02-21 08:17:28 51°18.429 2°50.898 2.6988 2.791355 30.50381 0.559074
2012-02-21 08:17:34 51°18.428 2°50.896 2.6989 2.791355 30.50381 0.559074
2012-02-21 08:17:39 51°18.427 2°50.895 2.696 2.791355 30.502865 0.590508
2012-02-21 08:17:43 51°18.426 2°50.894 2.6977 2.791459 30.50411 0.52764
2012-02-21 08:17:49 51°18.425 2°50.893 2.6982 2.791976 30.510335 0.873417
2012-02-21 08:17:54 51°18.424 2°50.891 2.7001 2.791976 30.509389 0.52764
2012-02-21 08:17:59 51°18.423 2°50.89 2.6997 2.791976 30.509389 0.52764
2012-02-21 08:18:03 51°18.423 2°50.889 2.7028 2.791976 30.510335 0.74768
2012-02-21 08:18:08 51°18.422 2°50.888 2.7009 2.791976 30.508443 0.810548
2012-02-21 08:18:14 51°18.421 2°50.886 2.6978 2.791976 30.509389 0.684811
2012-02-21 08:18:19 51°18.42 2°50.885 2.6996 2.791976 30.509389 0.496206
2012-02-21 08:18:23 51°18.419 2°50.884 2.7 2.791976 30.509389 0.684811
2012-02-21 08:18:29 51°18.418 2°50.883 2.697 2.791976 30.509389 0.684811
2012-02-21 08:18:34 51°18.417 2°50.881 2.6995 2.792079 30.509688 0.621943
2012-02-21 08:18:39 51°18.416 2°50.88 2.6982 2.791976 30.507497 0.590508
2012-02-21 08:18:43 51°18.416 2°50.879 2.7007 2.792182 30.508095 0.621943
2012-02-21 08:18:48 51°18.415 2°50.878 2.7042 2.792182 30.509987 0.559074
2012-02-21 08:18:54 51°18.414 2°50.877 2.6992 2.791976 30.507497 0.653377
2012-02-21 08:18:59 51°18.413 2°50.876 2.7007 2.792079 30.509688 0.621943
2012-02-21 08:19:03 51°18.413 2°50.875 2.6993 2.792079 30.509688 0.621943
2012-02-21 08:19:09 51°18.412 2°50.873 2.7003 2.791976 30.508443 0.621943
2012-02-21 08:19:14 51°18.411 2°50.872 2.7041 2.791976 30.508443 0.653377
2012-02-21 08:19:19 51°18.41 2°50.871 2.7058 2.791976 30.507497 0.653377
2012-02-21 08:19:23 51°18.41 2°50.87 2.7034 2.791976 30.507497 0.779114
2012-02-21 08:19:28 51°18.408 2°50.869 2.7011 2.791976 30.507497 0.779114
2012-02-21 08:19:34 51°18.407 2°50.867 2.7042 2.791976 30.507497 0.621943
2012-02-21 08:19:39 51°18.406 2°50.866 2.7016 2.791976 30.507497 0.621943
2012-02-21 08:19:43 51°18.406 2°50.866 2.6996 2.791976 30.507497 0.590508
2012-02-21 08:19:49 51°18.405 2°50.864 2.7037 2.791975 30.505606 0.653377
2012-02-21 08:19:54 51°18.404 2°50.863 2.7026 2.792079 30.505905 0.810548
2012-02-21 08:19:59 51°18.403 2°50.862 2.7002 2.792079 30.505905 0.810548
2012-02-21 08:20:03 51°18.402 2°50.861 2.7014 2.792079 30.50685 0.559074
2012-02-21 08:20:09 51°18.401 2°50.86 2.7017 2.791975 30.505606 0.621943
2012-02-21 08:20:14 51°18.4 2°50.859 2.7017 2.792079 30.507796 0.684811
2012-02-21 08:20:19 51°18.399 2°50.858 2.7021 2.791976 30.506551 0.779114
2012-02-21 08:20:23 51°18.399 2°50.857 2.7019 2.792079 30.50685 0.559074
2012-02-21 08:20:28 51°18.397 2°50.856 2.7032 2.792079 30.50685 0.559074
2012-02-21 08:20:34 51°18.396 2°50.855 2.7032 2.791975 30.505606 0.716245
2012-02-21 08:20:39 51°18.395 2°50.854 2.7062 2.791872 30.505306 0.590508
2012-02-21 08:20:43 51°18.394 2°50.853 2.7044 2.791872 30.504361 0.904851
2012-02-21 08:20:48 51°18.394 2°50.852 2.705 2.791872 30.505306 0.810548
2012-02-21 08:20:54 51°18.392 2°50.851 2.705 2.791975 30.505606 0.684811
2012-02-21 08:20:59 51°18.391 2°50.85 2.7052 2.791872 30.504361 0.621943
2012-02-21 08:21:03 51°18.39 2°50.849 2.7074 2.791872 30.504361 0.621943
2012-02-21 08:21:08 51°18.389 2°50.848 2.7074 2.791975 30.50466 0.590508
2012-02-21 08:21:14 51°18.388 2°50.846 2.7055 2.791872 30.503415 0.621943
2012-02-21 08:21:19 51°18.387 2°50.845 2.7043 2.791872 30.50247 0.559074
2012-02-21 08:21:23 51°18.387 2°50.845 2.7061 2.791872 30.50247 0.653377
2012-02-21 08:21:29 51°18.386 2°50.844 2.7057 2.791872 30.50247 0.653377
2012-02-21 08:21:34 51°18.385 2°50.843 2.7067 2.791975 30.502769 0.653377
2012-02-21 08:21:39 51°18.384 2°50.842 2.7073 2.791975 30.502769 0.810548
2012-02-21 08:21:43 51°18.383 2°50.841 2.7074 2.791975 30.502769 0.559074
2012-02-21 08:21:48 51°18.382 2°50.84 2.7084 2.791975 30.502769 0.716245
2012-02-21 08:21:54 51°18.381 2°50.839 2.7078 2.791975 30.502769 0.779114
2012-02-21 08:21:59 51°18.38 2°50.838 2.7071 2.791975 30.502769 0.779114
2012-02-21 08:22:03 51°18.379 2°50.837 2.7087 2.791975 30.502769 0.496206
2012-02-21 08:22:09 51°18.378 2°50.836 2.7089 2.791872 30.501524 0.684811
2012-02-21 08:22:14 51°18.377 2°50.835 2.7088 2.791975 30.501823 0.52764
2012-02-21 08:22:19 51°18.376 2°50.835 2.709 2.791975 30.501823 0.621943
2012-02-21 08:22:23 51°18.375 2°50.835 2.7118 2.791975 30.500878 0.559074
2012-02-21 08:22:28 51°18.374 2°50.834 2.7108 2.791975 30.500878 0.559074
2012-02-21 08:22:34 51°18.373 2°50.832 2.7116 2.791975 30.501823 0.936285
2012-02-21 08:22:39 51°18.372 2°50.832 2.7116 2.791975 30.500878 0.684811
2012-02-21 08:22:43 51°18.371 2°50.831 2.712 2.792079 30.501177 0.841982
2012-02-21 08:22:48 51°18.37 2°50.83 2.7133 2.792079 30.500232 0.559074
2012-02-21 08:22:54 51°18.369 2°50.829 2.7154 2.792079 30.500232 0.684811
2012-02-21 08:22:59 51°18.368 2°50.828 2.7144 2.792079 30.500232 0.590508
2012-02-21 08:23:03 51°18.367 2°50.828 2.7151 2.792079 30.500232 0.590508
2012-02-21 08:23:08 51°18.366 2°50.827 2.7142 2.792182 30.500531 0.684811
2012-02-21 08:23:14 51°18.365 2°50.826 2.7165 2.792079 30.499286 0.841982
2012-02-21 08:23:19 51°18.364 2°50.825 2.7161 2.792182 30.499586 0.684811
2012-02-21 08:23:23 51°18.363 2°50.825 2.7157 2.792182 30.499586 0.621943
2012-02-21 08:23:29 51°18.362 2°50.824 2.7157 2.792182 30.499586 0.621943
2012-02-21 08:23:34 51°18.36 2°50.823 2.7168 2.792182 30.498641 0.684811
2012-02-21 08:23:39 51°18.359 2°50.822 2.7165 2.792182 30.497695 0.621943
2012-02-21 08:23:43 51°18.358 2°50.821 2.7159 2.792286 30.49894 0.590508
2012-02-21 08:23:48 51°18.357 2°50.82 2.717 2.792389 30.499239 0.621943
2012-02-21 08:23:54 51°18.356 2°50.82 2.7141 2.792286 30.497995 0.684811
2012-02-21 08:23:59 51°18.356 2°50.819 2.7155 2.792286 30.497995 0.684811
2012-02-21 08:24:03 51°18.354 2°50.818 2.7155 2.792286 30.49705 0.653377
2012-02-21 08:24:09 51°18.353 2°50.817 2.713 2.792286 30.49705 0.621943
2012-02-21 08:24:14 51°18.352 2°50.816 2.7123 2.792286 30.49705 0.684811
2012-02-21 08:24:19 51°18.351 2°50.816 2.7126 2.792286 30.497995 0.653377
2012-02-21 08:24:23 51°18.35 2°50.815 2.7133 2.792286 30.49894 0.653377
2012-02-21 08:24:29 51°18.349 2°50.814 2.7158 2.792286 30.49894 0.716245
2012-02-21 08:24:34 51°18.348 2°50.814 2.7188 2.792286 30.49894 0.716245
2012-02-21 08:24:39 51°18.347 2°50.813 2.7158 2.792182 30.497695 0.841982
2012-02-21 08:24:43 51°18.346 2°50.812 2.7147 2.792286 30.497995 0.590508
2012-02-21 08:24:49 51°18.345 2°50.811 2.7195 2.792182 30.497695 0.621943
2012-02-21 08:24:54 51°18.344 2°50.81 2.7168 2.792182 30.497695 0.653377
2012-02-21 08:24:59 51°18.343 2°50.809 2.7176 2.792182 30.497695 0.653377
2012-02-21 08:25:03 51°18.342 2°50.808 2.7181 2.792079 30.495506 0.653377
2012-02-21 08:25:09 51°18.34 2°50.807 2.7177 2.792079 30.494561 0.904851
2012-02-21 08:25:14 51°18.34 2°50.807 2.7174 2.792079 30.495506 0.74768
2012-02-21 08:25:19 51°18.339 2°50.806 2.7185 2.792182 30.495805 0.52764
2012-02-21 08:25:23 51°18.338 2°50.805 2.7192 2.792182 30.49486 0.52764
2012-02-21 08:25:29 51°18.337 2°50.804 2.7178 2.792182 30.49486 0.52764
2012-02-21 08:25:34 51°18.336 2°50.803 2.7207 2.792182 30.49486 0.716245
2012-02-21 08:25:39 51°18.335 2°50.802 2.7205 2.792182 30.493915 0.653377
2012-02-21 08:25:43 51°18.334 2°50.802 2.7206 2.791975 30.491427 0.496206
2012-02-21 08:25:48 51°18.333 2°50.801 2.7213 2.791975 30.491427 0.779114
2012-02-21 08:25:54 51°18.332 2°50.8 2.7232 2.792079 30.492671 0.590508
2012-02-21 08:25:59 51°18.331 2°50.799 2.7238 2.792079 30.492671 0.559074
2012-02-21 08:26:04 51°18.33 2°50.798 2.724 2.792079 30.492671 0.559074
2012-02-21 08:26:09 51°18.329 2°50.797 2.7222 2.792079 30.491726 0.621943
2012-02-21 08:26:14 51°18.328 2°50.796 2.7236 2.792079 30.491726 0.873417
2012-02-21 08:26:19 51°18.327 2°50.795 2.7249 2.792079 30.491726 0.684811
2012-02-21 08:26:23 51°18.326 2°50.795 2.7238 2.792079 30.490782 0.810548
2012-02-21 08:26:29 51°18.325 2°50.793 2.725 2.792285 30.492325 0.559074
2012-02-21 08:26:34 51°18.324 2°50.793 2.7242 2.792285 30.492325 0.559074
2012-02-21 08:26:39 51°18.324 2°50.792 2.7256 2.792182 30.490136 0.590508
2012-02-21 08:26:43 51°18.323 2°50.791 2.7263 2.792389 30.492625 0.621943
2012-02-21 08:26:49 51°18.321 2°50.79 2.7295 2.792389 30.49168 0.590508
2012-02-21 08:26:54 51°18.321 2°50.79 2.7245 2.792492 30.492924 0.653377
2012-02-21 08:26:59 51°18.32 2°50.789 2.7261 2.792492 30.492924 0.653377
2012-02-21 08:27:03 51°18.319 2°50.789 2.7285 2.791975 30.485759 0.590508
2012-02-21 08:27:09 51°18.318 2°50.787 2.7283 2.792492 30.49198 0.684811
2012-02-21 08:27:14 51°18.317 2°50.787 2.7264 2.792596 30.493224 0.621943
2012-02-21 08:27:19 51°18.316 2°50.785 2.7258 2.792492 30.491035 0.653377
2012-02-21 08:27:23 51°18.315 2°50.784 2.7271 2.792492 30.489146 0.621943
2012-02-21 08:27:28 51°18.314 2°50.784 2.7286 2.792492 30.489146 0.621943
2012-02-21 08:27:34 51°18.313 2°50.783 2.7273 2.792596 30.491334 0.653377
2012-02-21 08:27:39 51°18.312 2°50.782 2.7295 2.792492 30.49009 0.653377
2012-02-21 08:27:43 51°18.311 2°50.781 2.7313 2.792596 30.49039 0.653377
2012-02-21 08:27:48 51°18.31 2°50.78 2.7284 2.792596 30.491334 0.653377
2012-02-21 08:27:54 51°18.309 2°50.778 2.7296 2.792596 30.49039 0.464771
2012-02-21 08:27:59 51°18.307 2°50.778 2.7299 2.792492 30.489146 0.716245
2012-02-21 08:28:03 51°18.307 2°50.777 2.7296 2.792492 30.489146 0.716245
2012-02-21 08:28:09 51°18.306 2°50.776 2.7339 2.792596 30.49039 0.590508
2012-02-21 08:28:14 51°18.305 2°50.775 2.7297 2.792596 30.489445 0.716245
2012-02-21 08:28:19 51°18.303 2°50.774 2.7309 2.792492 30.488202 0.52764
2012-02-21 08:28:23 51°18.303 2°50.774 2.7328 2.792596 30.489445 0.841982
2012-02-21 08:28:28 51°18.302 2°50.772 2.7317 2.792596 30.489445 0.841982
2012-02-21 08:28:34 51°18.301 2°50.772 2.7333 2.792596 30.488501 0.559074